Time,TemperatureF,DewpointF,PressureIn,WindDirection,WindDirectionDegrees,WindSpeedMPH,WindSpeedGustMPH,Humidity,HourlyPrecipIn,Conditions,Clouds,dailyrainin,SoftwareType,DateUTC
2013-06-13 00:00:00,65.5,65.5,29.65,West,277,1.1,2.3,100,0.55,,,0.51,VWS V14.01,2013-06-13 04:00:00,
2013-06-13 00:01:00,65.5,65.5,29.65,West,277,1.1,2.3,100,0.55,,,0.51,VWS V14.01,2013-06-13 04:01:00,
2013-06-13 00:02:00,65.3,65.3,29.65,WNW,287,0.0,1.1,100,0.55,,,0.55,VWS V14.01,2013-06-13 04:02:00,
2013-06-13 00:03:00,69.3,68.4,29.65,NE,50,6.1,7.1,97,0.12,,,0.00,VWS V14.01,2013-06-13 04:03:00,
2013-06-13 00:04:00,69.4,68.6,29.65,ENE,57,4.9,7.6,97,0.12,,,0.00,VWS V14.01,2013-06-13 04:04:00,
2013-06-13 00:05:00,65.4,65.4,29.66,NW,310,3.0,3.0,100,0.55,,,0.55,VWS V14.01,2013-06-13 04:05:00,
2013-06-13 00:06:00,65.3,65.3,29.66,NW,310,2.3,3.0,100,0.55,,,0.55,VWS V14.01,2013-06-13 04:06:00,
2013-06-13 00:07:00,65.3,65.3,29.65,NW,310,3.5,3.5,100,0.55,,,0.55,VWS V14.01,2013-06-13 04:07:00,
2013-06-13 00:08:00,65.5,65.5,29.65,NW,314,3.4,3.5,100,0.55,,,0.55,VWS V14.01,2013-06-13 04:08:00,
2013-06-13 00:09:00,65.6,65.6,29.65,NW,308,4.2,4.5,100,0.55,,,0.55,VWS V14.01,2013-06-13 04:09:00,
2013-06-13 00:10:00,69.0,68.4,29.65,NNE,32,5.1,5.1,98,0.12,,,0.00,VWS V14.01,2013-06-13 04:10:00,
2013-06-13 00:11:00,69.1,68.4,29.65,NE,35,5.7,5.9,98,0.12,,,0.00,VWS V14.01,2013-06-13 04:11:00,
2013-06-13 00:12:00,65.8,65.8,29.66,WNW,289,2.7,4.5,100,0.59,,,0.59,VWS V14.01,2013-06-13 04:12:00,
2013-06-13 00:13:00,65.6,65.6,29.65,WNW,287,3.0,4.5,100,0.59,,,0.59,VWS V14.01,2013-06-13 04:13:00,
2013-06-13 00:14:00,65.7,65.7,29.65,West,266,3.4,4.5,100,0.59,,,0.59,VWS V14.01,2013-06-13 04:14:00,
2013-06-13 00:15:00,65.7,65.7,29.65,West,266,2.7,4.5,100,0.59,,,0.59,VWS V14.01,2013-06-13 04:15:00,
2013-06-13 00:16:00,69.0,68.5,29.64,NE,40,4.2,5.4,98,0.16,,,0.04,VWS V14.01,2013-06-13 04:16:00,
2013-06-13 00:17:00,68.9,68.4,29.64,NNE,25,4.0,5.1,98,0.20,,,0.08,VWS V14.01,2013-06-13 04:17:00,
2013-06-13 00:18:00,65.6,65.6,29.65,SW,216,3.4,4.5,100,0.63,,,0.63,VWS V14.01,2013-06-13 04:18:00,
2013-06-13 00:19:00,68.8,68.5,29.65,WNW,294,13.4,13.4,99,0.20,,,0.08,VWS V14.01,2013-06-13 04:19:00,
2013-06-13 00:20:00,65.6,65.6,29.65,SW,227,3.2,4.5,100,0.63,,,0.63,VWS V14.01,2013-06-13 04:20:00,
2013-06-13 00:21:00,65.7,65.7,29.65,SW,220,2.5,4.5,100,0.63,,,0.63,VWS V14.01,2013-06-13 04:21:00,
2013-06-13 00:22:00,68.0,67.7,29.66,WNW,284,20.6,27.0,99,0.28,,,0.16,VWS V14.01,2013-06-13 04:22:00,
2013-06-13 00:23:00,65.8,65.8,29.65,SSW,205,4.0,4.5,100,0.63,,,0.63,VWS V14.01,2013-06-13 04:23:00,
2013-06-13 00:24:00,66.7,66.4,29.66,WNW,292,14.5,14.8,99,0.31,,,0.20,VWS V14.01,2013-06-13 04:24:00,
2013-06-13 00:25:00,66.7,66.4,29.66,West,264,21.0,21.0,99,0.31,,,0.20,VWS V14.01,2013-06-13 04:25:00,
2013-06-13 00:26:00,65.7,65.7,29.65,SW,220,6.8,6.9,100,0.63,,,0.63,VWS V14.01,2013-06-13 04:26:00,
2013-06-13 00:27:00,65.8,65.4,29.66,West,269,16.9,23.2,99,0.39,,,0.28,VWS V14.01,2013-06-13 04:27:00,
2013-06-13 00:28:00,65.6,65.6,29.67,SW,221,5.1,6.9,100,0.63,,,0.63,VWS V14.01,2013-06-13 04:28:00,
2013-06-13 00:29:00,65.7,65.7,29.65,SW,220,3.7,6.9,100,0.63,,,0.63,VWS V14.01,2013-06-13 04:29:00,
2013-06-13 00:30:00,64.4,64.2,29.67,SW,231,20.3,21.3,99,0.51,,,0.39,VWS V14.01,2013-06-13 04:30:00,
2013-06-13 00:31:00,65.7,65.7,29.64,SW,220,4.4,6.9,100,0.67,,,0.67,VWS V14.01,2013-06-13 04:31:00,
2013-06-13 00:32:00,65.7,65.7,29.64,SW,224,5.2,6.9,100,0.67,,,0.67,VWS V14.01,2013-06-13 04:32:00,
2013-06-13 00:33:00,64.4,64.3,29.67,SSW,197,15.7,15.7,100,0.55,,,0.43,VWS V14.01,2013-06-13 04:33:00,
2013-06-13 00:34:00,65.8,65.8,29.64,SW,222,5.4,7.1,100,0.67,,,0.67,VWS V14.01,2013-06-13 04:34:00,
2013-06-13 00:35:00,65.8,65.8,29.64,SSW,211,4.7,7.1,100,0.67,,,0.67,VWS V14.01,2013-06-13 04:35:00,
2013-06-13 00:36:00,65.8,65.8,29.64,SSW,205,2.3,7.1,100,0.67,,,0.67,VWS V14.01,2013-06-13 04:36:00,
2013-06-13 00:37:00,65.8,65.8,29.64,SW,230,4.2,7.1,100,0.67,,,0.67,VWS V14.01,2013-06-13 04:37:00,
2013-06-13 00:38:00,68.5,68.0,29.65,SSE,163,5.4,7.6,98,0.55,,,0.47,VWS V14.01,2013-06-13 04:38:00,
2013-06-13 00:39:00,67.1,66.7,29.65,SE,127,4.0,5.4,98,0.55,,,0.47,VWS V14.01,2013-06-13 04:39:00,
2013-06-13 00:40:00,68.4,67.9,29.64,ESE,120,6.1,6.1,98,0.55,,,0.47,VWS V14.01,2013-06-13 04:40:00,
2013-06-13 00:41:00,65.9,65.9,29.64,WSW,244,4.4,7.1,100,0.67,,,0.67,VWS V14.01,2013-06-13 04:41:00,
2013-06-13 00:42:00,66.0,66.0,29.64,WSW,252,4.4,7.1,100,0.67,,,0.67,VWS V14.01,2013-06-13 04:42:00,
2013-06-13 00:43:00,66.0,66.0,29.65,WSW,252,5.1,7.1,100,0.71,,,0.71,VWS V14.01,2013-06-13 04:43:00,
2013-06-13 00:44:00,66.0,65.8,29.65,East,84,0.0,3.2,99,0.55,,,0.47,VWS V14.01,2013-06-13 04:44:00,
2013-06-13 00:45:00,66.1,66.0,29.65,East,84,0.0,0.0,100,0.55,,,0.47,VWS V14.01,2013-06-13 04:45:00,
2013-06-13 00:46:00,65.4,65.4,29.67,WNW,292,1.3,1.3,100,0.55,,,0.47,VWS V14.01,2013-06-13 04:46:00,
2013-06-13 00:47:00,66.1,66.1,29.65,WNW,292,0.0,1.3,100,0.51,,,0.47,VWS V14.01,2013-06-13 04:47:00,
2013-06-13 00:48:00,66.1,66.1,29.65,WSW,249,5.7,7.3,100,0.71,,,0.71,VWS V14.01,2013-06-13 04:48:00,
2013-06-13 00:49:00,66.2,66.2,29.65,WSW,249,5.7,7.3,100,0.71,,,0.71,VWS V14.01,2013-06-13 04:49:00,
2013-06-13 00:50:00,66.1,66.1,29.65,WSW,256,4.9,7.3,100,0.71,,,0.71,VWS V14.01,2013-06-13 04:50:00,
2013-06-13 00:51:00,65.5,65.5,29.65,WNW,293,3.2,3.2,100,0.55,,,0.51,VWS V14.01,2013-06-13 04:51:00,
2013-06-13 00:52:00,65.2,65.2,29.65,NW,323,3.0,3.4,100,0.55,,,0.51,VWS V14.01,2013-06-13 04:52:00,
2013-06-13 00:53:00,65.2,65.3,29.65,NNE,26,2.8,3.0,100,0.55,,,0.51,VWS V14.01,2013-06-13 04:53:00,
2013-06-13 00:54:00,66.1,66.1,29.64,SW,224,3.0,7.3,100,0.75,,,0.75,VWS V14.01,2013-06-13 04:54:00,
2013-06-13 00:55:00,65.2,65.2,29.65,NW,318,1.1,3.0,100,0.55,,,0.51,VWS V14.01,2013-06-13 04:55:00,
2013-06-13 00:56:00,66.5,66.5,29.66,SSW,196,3.4,7.3,100,0.75,,,0.75,VWS V14.01,2013-06-13 04:56:00,
2013-06-13 00:57:00,66.2,66.2,29.64,SW,223,2.8,7.3,100,0.75,,,0.75,VWS V14.01,2013-06-13 04:57:00,
2013-06-13 00:58:00,66.2,66.2,29.66,SSW,207,4.0,7.3,100,0.75,,,0.75,VWS V14.01,2013-06-13 04:58:00,
2013-06-13 00:59:00,66.2,66.2,29.66,SSW,207,4.0,7.3,100,0.75,,,0.75,VWS V14.01,2013-06-13 04:59:00,
2013-06-13 01:01:00,66.2,65.7,29.63,South,175,2.3,7.3,98,0.75,,,0.75,VWS V14.01,2013-06-13 05:01:00,
2013-06-13 01:02:00,66.2,66.2,29.63,SSE,157,3.0,7.3,100,0.79,,,0.79,VWS V14.01,2013-06-13 05:02:00,
2013-06-13 01:03:00,66.1,66.1,29.64,SSE,151,1.1,7.3,100,0.79,,,0.79,VWS V14.01,2013-06-13 05:03:00,
2013-06-13 01:04:00,66.1,66.1,29.63,SSE,153,2.2,2.2,100,0.79,,,0.79,VWS V14.01,2013-06-13 05:04:00,
2013-06-13 01:05:00,66.1,66.1,29.64,SSE,164,3.0,3.0,100,0.79,,,0.79,VWS V14.01,2013-06-13 05:05:00,
2013-06-13 01:06:00,66.0,66.0,29.63,SSE,153,4.5,4.5,100,0.79,,,0.79,VWS V14.01,2013-06-13 05:06:00,
2013-06-13 01:07:00,66.0,66.0,29.63,SE,140,2.8,4.5,100,0.79,,,0.79,VWS V14.01,2013-06-13 05:07:00,
2013-06-13 01:08:00,65.9,66.0,29.61,SE,130,2.5,2.8,100,0.79,,,0.79,VWS V14.01,2013-06-13 05:08:00,
2013-06-13 01:09:00,66.0,66.0,29.61,ESE,103,2.7,2.7,100,0.79,,,0.79,VWS V14.01,2013-06-13 05:09:00,
2013-06-13 01:10:00,65.9,65.9,29.60,East,95,5.2,5.2,100,0.79,,,0.79,VWS V14.01,2013-06-13 05:10:00,
2013-06-13 01:11:00,65.9,65.9,29.61,ENE,63,4.0,5.2,100,0.79,,,0.79,VWS V14.01,2013-06-13 05:11:00,
2013-06-13 01:12:00,66.0,66.0,29.60,ENE,77,4.4,4.4,100,0.79,,,0.79,VWS V14.01,2013-06-13 05:12:00,
2013-06-13 01:13:00,66.0,66.0,29.61,ENE,71,4.0,4.4,100,0.75,,,0.79,VWS V14.01,2013-06-13 05:13:00,
2013-06-13 01:14:00,66.0,66.0,29.62,East,83,3.7,4.0,100,0.79,,,0.83,VWS V14.01,2013-06-13 05:14:00,
2013-06-13 01:15:00,66.0,66.0,29.62,East,93,0.0,3.7,100,0.79,,,0.83,VWS V14.01,2013-06-13 05:15:00,
2013-06-13 01:16:00,66.1,66.1,29.63,East,93,0.0,0.0,100,0.79,,,0.83,VWS V14.01,2013-06-13 05:16:00,
2013-06-13 01:17:00,66.0,66.0,29.62,NW,325,0.0,0.0,100,0.79,,,0.83,VWS V14.01,2013-06-13 05:17:00,
2013-06-13 01:18:00,65.9,65.9,29.62,NNW,336,1.1,1.1,100,0.75,,,0.83,VWS V14.01,2013-06-13 05:18:00,
2013-06-13 01:19:00,66.0,66.0,29.63,NE,40,0.0,2.0,100,0.75,,,0.83,VWS V14.01,2013-06-13 05:19:00,
2013-06-13 01:20:00,66.0,66.0,29.63,NE,42,1.8,1.8,100,0.75,,,0.83,VWS V14.01,2013-06-13 05:20:00,
2013-06-13 01:21:00,66.0,66.0,29.61,NE,54,3.9,3.9,100,0.75,,,0.83,VWS V14.01,2013-06-13 05:21:00,
2013-06-13 01:22:00,65.8,65.8,29.60,ENE,71,5.6,5.6,100,0.71,,,0.83,VWS V14.01,2013-06-13 05:22:00,
2013-06-13 01:23:00,65.7,65.7,29.57,ENE,57,6.3,6.3,100,0.67,,,0.83,VWS V14.01,2013-06-13 05:23:00,
2013-06-13 01:24:00,65.7,65.7,29.57,ENE,57,6.1,6.3,100,0.67,,,0.83,VWS V14.01,2013-06-13 05:24:00,
2013-06-13 01:25:00,66.0,66.0,29.57,ENE,63,6.4,6.4,100,0.63,,,0.83,VWS V14.01,2013-06-13 05:25:00,
2013-06-13 01:26:00,65.9,65.9,29.57,NE,54,6.3,6.4,100,0.63,,,0.83,VWS V14.01,2013-06-13 05:26:00,
2013-06-13 01:27:00,66.0,66.0,29.57,ENE,66,8.0,8.0,100,0.59,,,0.83,VWS V14.01,2013-06-13 05:27:00,
2013-06-13 01:28:00,66.0,66.0,29.58,ENE,77,0.0,4.4,100,0.55,,,0.83,VWS V14.01,2013-06-13 05:28:00,
2013-06-13 01:29:00,66.1,66.1,29.59,SW,232,0.0,0.0,100,0.51,,,0.83,VWS V14.01,2013-06-13 05:29:00,
2013-06-13 01:30:00,66.4,66.4,29.60,WSW,258,5.2,5.2,100,0.47,,,0.83,VWS V14.01,2013-06-13 05:30:00,
2013-06-13 01:31:00,66.2,66.3,29.61,SW,229,4.2,5.2,100,0.43,,,0.83,VWS V14.01,2013-06-13 05:31:00,
2013-06-13 01:32:00,66.3,66.3,29.61,SW,235,6.1,6.1,100,0.43,,,0.83,VWS V14.01,2013-06-13 05:32:00,
2013-06-13 01:33:00,66.2,66.2,29.61,SW,232,6.4,7.1,100,0.43,,,0.83,VWS V14.01,2013-06-13 05:33:00,
2013-06-13 01:34:00,66.3,66.3,29.61,SW,234,6.4,6.4,100,0.39,,,0.83,VWS V14.01,2013-06-13 05:34:00,
2013-06-13 01:35:00,66.4,66.4,29.61,WSW,241,6.3,7.5,100,0.39,,,0.83,VWS V14.01,2013-06-13 05:35:00,
2013-06-13 01:36:00,66.4,66.4,29.63,SW,225,7.5,7.5,100,0.39,,,0.83,VWS V14.01,2013-06-13 05:36:00,
2013-06-13 01:37:00,66.2,66.2,29.61,SW,230,7.1,7.1,100,0.39,,,0.83,VWS V14.01,2013-06-13 05:37:00,
2013-06-13 01:38:00,66.2,66.2,29.61,SW,234,7.3,7.3,100,0.39,,,0.83,VWS V14.01,2013-06-13 05:38:00,
2013-06-13 01:39:00,66.2,66.2,29.61,SW,224,5.2,7.3,100,0.39,,,0.83,VWS V14.01,2013-06-13 05:39:00,
2013-06-13 01:40:00,66.3,66.3,29.62,WSW,240,7.6,8.0,100,0.35,,,0.83,VWS V14.01,2013-06-13 05:40:00,
2013-06-13 01:41:00,66.3,66.3,29.61,SW,226,7.1,7.8,100,0.35,,,0.83,VWS V14.01,2013-06-13 05:41:00,
2013-06-13 01:42:00,66.4,66.4,29.60,SW,231,9.7,9.7,100,0.35,,,0.83,VWS V14.01,2013-06-13 05:42:00,
2013-06-13 01:43:00,66.4,66.4,29.62,SW,235,6.8,6.8,100,0.35,,,0.83,VWS V14.01,2013-06-13 05:43:00,
2013-06-13 01:44:00,66.4,66.4,29.62,WSW,256,8.1,8.1,100,0.35,,,0.83,VWS V14.01,2013-06-13 05:44:00,
2013-06-13 01:45:00,66.4,66.4,29.62,WSW,248,6.9,8.1,100,0.35,,,0.83,VWS V14.01,2013-06-13 05:45:00,
2013-06-13 01:46:00,66.6,66.6,29.62,WSW,252,9.3,9.3,100,0.35,,,0.83,VWS V14.01,2013-06-13 05:46:00,
2013-06-13 01:47:00,66.8,66.8,29.62,WSW,257,9.2,9.2,100,0.35,,,0.83,VWS V14.01,2013-06-13 05:47:00,
2013-06-13 01:48:00,66.8,66.8,29.61,WSW,242,6.8,9.2,100,0.35,,,0.83,VWS V14.01,2013-06-13 05:48:00,
2013-06-13 01:49:00,66.8,66.8,29.61,West,259,8.7,9.3,100,0.35,,,0.83,VWS V14.01,2013-06-13 05:49:00,
2013-06-13 01:50:00,66.9,66.9,29.61,West,264,8.5,9.9,100,0.35,,,0.83,VWS V14.01,2013-06-13 05:50:00,
2013-06-13 01:51:00,66.8,66.8,29.61,WSW,256,6.8,8.5,100,0.31,,,0.83,VWS V14.01,2013-06-13 05:51:00,
2013-06-13 01:52:00,67.0,67.0,29.61,SW,232,9.3,10.5,100,0.31,,,0.83,VWS V14.01,2013-06-13 05:52:00,
2013-06-13 01:53:00,66.8,66.8,29.62,WSW,243,8.8,9.3,100,0.31,,,0.83,VWS V14.01,2013-06-13 05:53:00,
2013-06-13 01:54:00,66.9,66.9,29.63,WSW,246,11.9,11.9,100,0.31,,,0.83,VWS V14.01,2013-06-13 05:54:00,
2013-06-13 01:55:00,67.0,67.0,29.62,SW,230,11.1,11.1,100,0.31,,,0.83,VWS V14.01,2013-06-13 05:55:00,
2013-06-13 01:56:00,67.0,67.0,29.62,SW,234,12.6,12.6,100,0.31,,,0.83,VWS V14.01,2013-06-13 05:56:00,
2013-06-13 01:57:00,67.2,67.2,29.63,WSW,256,9.7,12.6,100,0.31,,,0.83,VWS V14.01,2013-06-13 05:57:00,
2013-06-13 01:58:00,67.3,67.3,29.62,WSW,250,9.9,9.9,100,0.31,,,0.83,VWS V14.01,2013-06-13 05:58:00,
2013-06-13 01:59:00,67.3,67.3,29.62,West,261,12.4,12.4,100,0.31,,,0.83,VWS V14.01,2013-06-13 05:59:00,
2013-06-13 02:00:00,67.3,67.3,29.63,WSW,242,14.3,14.3,100,0.31,,,0.83,VWS V14.01,2013-06-13 06:00:00,
2013-06-13 02:02:00,67.3,67.3,29.62,SW,230,9.9,14.3,100,0.31,,,0.83,VWS V14.01,2013-06-13 06:02:00,
2013-06-13 02:03:00,67.6,67.6,29.61,WSW,250,11.2,11.2,100,0.28,,,0.83,VWS V14.01,2013-06-13 06:03:00,
2013-06-13 02:04:00,67.3,67.3,29.61,WSW,255,13.4,13.4,100,0.04,,,0.83,VWS V14.01,2013-06-13 06:04:00,
2013-06-13 02:05:00,67.4,67.4,29.62,West,268,11.9,13.5,100,0.04,,,0.83,VWS V14.01,2013-06-13 06:05:00,
2013-06-13 02:06:00,67.2,67.2,29.61,WSW,244,9.0,11.6,100,0.04,,,0.83,VWS V14.01,2013-06-13 06:06:00,
2013-06-13 02:07:00,67.2,67.2,29.62,West,259,10.4,10.4,100,0.04,,,0.83,VWS V14.01,2013-06-13 06:07:00,
2013-06-13 02:08:00,67.1,67.1,29.62,WSW,258,10.0,10.4,100,0.04,,,0.83,VWS V14.01,2013-06-13 06:08:00,
2013-06-13 02:09:00,67.1,67.1,29.62,WSW,258,7.3,11.7,100,0.04,,,0.83,VWS V14.01,2013-06-13 06:09:00,
2013-06-13 02:10:00,66.9,66.9,29.63,West,266,9.3,9.3,100,0.04,,,0.83,VWS V14.01,2013-06-13 06:10:00,
2013-06-13 02:11:00,66.7,66.7,29.62,West,265,7.8,7.8,100,0.04,,,0.83,VWS V14.01,2013-06-13 06:11:00,
2013-06-13 02:12:00,66.8,66.8,29.61,West,264,9.3,9.3,100,0.04,,,0.83,VWS V14.01,2013-06-13 06:12:00,
2013-06-13 02:13:00,66.9,66.9,29.62,WSW,248,9.5,9.5,100,0.04,,,0.83,VWS V14.01,2013-06-13 06:13:00,
2013-06-13 02:14:00,66.9,66.9,29.62,West,264,11.7,11.7,100,0.04,,,0.83,VWS V14.01,2013-06-13 06:14:00,
2013-06-13 02:15:00,66.4,66.4,29.62,WNW,282,7.1,11.7,100,0.00,,,0.83,VWS V14.01,2013-06-13 06:15:00,
2013-06-13 02:16:00,66.5,66.5,29.62,WSW,249,7.8,7.8,100,0.00,,,0.83,VWS V14.01,2013-06-13 06:16:00,
2013-06-13 02:17:00,66.6,66.6,29.62,West,266,9.5,11.4,100,0.00,,,0.83,VWS V14.01,2013-06-13 06:17:00,
2013-06-13 02:18:00,66.6,66.6,29.62,West,265,10.4,10.4,100,0.00,,,0.83,VWS V14.01,2013-06-13 06:18:00,
2013-06-13 02:19:00,66.6,66.4,29.62,West,278,9.2,10.4,99,0.00,,,0.83,VWS V14.01,2013-06-13 06:19:00,
2013-06-13 02:20:00,66.4,66.4,29.63,West,270,8.8,9.2,100,0.00,,,0.83,VWS V14.01,2013-06-13 06:20:00,
2013-06-13 02:21:00,66.5,66.5,29.63,West,273,11.1,12.8,100,0.00,,,0.83,VWS V14.01,2013-06-13 06:21:00,
2013-06-13 02:22:00,66.9,66.7,29.63,West,262,11.4,11.4,99,0.00,,,0.83,VWS V14.01,2013-06-13 06:22:00,
2013-06-13 02:23:00,66.5,66.2,29.63,WNW,283,11.2,11.4,99,0.00,,,0.83,VWS V14.01,2013-06-13 06:23:00,
2013-06-13 02:24:00,66.7,66.1,29.63,West,265,10.5,10.5,98,0.00,,,0.83,VWS V14.01,2013-06-13 06:24:00,
2013-06-13 02:25:00,66.6,65.9,29.63,West,274,10.0,10.5,98,0.00,,,0.83,VWS V14.01,2013-06-13 06:25:00,
2013-06-13 02:26:00,66.4,65.6,29.64,West,269,8.7,12.4,97,0.00,,,0.83,VWS V14.01,2013-06-13 06:26:00,
2013-06-13 02:27:00,66.5,64.7,29.63,West,259,11.6,11.6,94,0.00,,,0.83,VWS V14.01,2013-06-13 06:27:00,
2013-06-13 02:28:00,66.5,65.6,29.64,WSW,252,11.6,11.6,97,0.00,,,0.83,VWS V14.01,2013-06-13 06:28:00,
2013-06-13 02:29:00,66.3,65.4,29.63,West,270,10.4,13.3,97,0.00,,,0.83,VWS V14.01,2013-06-13 06:29:00,
2013-06-13 02:30:00,66.3,65.4,29.63,WNW,284,9.7,10.4,97,0.00,,,0.83,VWS V14.01,2013-06-13 06:30:00,
2013-06-13 02:31:00,66.5,65.6,29.64,West,268,12.4,12.4,97,0.00,,,0.83,VWS V14.01,2013-06-13 06:31:00,
2013-06-13 02:32:00,66.8,65.8,29.64,West,268,12.1,14.6,97,0.00,,,0.83,VWS V14.01,2013-06-13 06:32:00,
2013-06-13 02:33:00,66.5,65.5,29.64,WSW,253,14.3,14.3,96,0.00,,,0.83,VWS V14.01,2013-06-13 06:33:00,
2013-06-13 02:34:00,66.3,65.3,29.64,West,269,10.9,14.3,96,0.00,,,0.83,VWS V14.01,2013-06-13 06:34:00,
2013-06-13 02:35:00,66.3,65.3,29.64,WNW,287,12.3,12.3,97,0.00,,,0.83,VWS V14.01,2013-06-13 06:35:00,
2013-06-13 02:36:00,66.2,65.4,29.64,West,264,11.4,12.3,97,0.00,,,0.83,VWS V14.01,2013-06-13 06:36:00,
2013-06-13 02:37:00,66.3,65.4,29.64,West,278,11.6,11.6,97,0.00,,,0.83,VWS V14.01,2013-06-13 06:37:00,
2013-06-13 02:38:00,66.7,65.8,29.64,West,277,15.5,15.5,97,0.00,,,0.83,VWS V14.01,2013-06-13 06:38:00,
2013-06-13 02:39:00,66.3,65.5,29.64,WSW,248,16.2,16.2,97,0.00,,,0.83,VWS V14.01,2013-06-13 06:39:00,
2013-06-13 02:40:00,66.4,65.5,29.63,WSW,255,13.3,13.3,97,0.00,,,0.83,VWS V14.01,2013-06-13 06:40:00,
2013-06-13 02:41:00,66.3,65.4,29.64,West,271,14.0,15.0,97,0.00,,,0.83,VWS V14.01,2013-06-13 06:41:00,
2013-06-13 02:42:00,66.6,65.7,29.64,West,267,15.0,15.0,97,0.00,,,0.83,VWS V14.01,2013-06-13 06:42:00,
2013-06-13 02:43:00,66.2,65.3,29.63,West,264,10.0,12.8,97,0.00,,,0.83,VWS V14.01,2013-06-13 06:43:00,
2013-06-13 02:44:00,66.2,65.3,29.62,WSW,251,11.7,11.7,97,0.00,,,0.83,VWS V14.01,2013-06-13 06:44:00,
2013-06-13 02:45:00,66.4,65.3,29.63,West,259,14.0,14.0,96,0.00,,,0.83,VWS V14.01,2013-06-13 06:45:00,
2013-06-13 02:46:00,66.4,65.2,29.62,WSW,253,11.6,14.0,96,0.00,,,0.83,VWS V14.01,2013-06-13 06:46:00,
2013-06-13 02:47:00,66.3,65.1,29.61,West,264,9.2,11.2,96,0.00,,,0.83,VWS V14.01,2013-06-13 06:47:00,
2013-06-13 02:48:00,66.1,64.9,29.61,West,276,11.6,11.6,96,0.00,,,0.83,VWS V14.01,2013-06-13 06:48:00,
2013-06-13 02:49:00,66.4,65.2,29.60,WSW,252,10.7,11.6,96,0.00,,,0.83,VWS V14.01,2013-06-13 06:49:00,
2013-06-13 02:50:00,66.1,64.7,29.60,West,259,8.3,11.2,95,0.00,,,0.83,VWS V14.01,2013-06-13 06:50:00,
2013-06-13 02:51:00,66.2,64.8,29.59,West,270,9.0,9.0,95,0.00,,,0.83,VWS V14.01,2013-06-13 06:51:00,
2013-06-13 02:52:00,65.9,64.6,29.60,West,267,8.0,10.0,95,0.00,,,0.83,VWS V14.01,2013-06-13 06:52:00,
2013-06-13 02:53:00,66.1,64.8,29.60,West,280,11.1,11.1,95,0.00,,,0.83,VWS V14.01,2013-06-13 06:53:00,
2013-06-13 02:54:00,66.1,64.7,29.59,West,271,8.7,11.1,95,0.00,,,0.83,VWS V14.01,2013-06-13 06:54:00,
2013-06-13 02:55:00,66.1,64.7,29.59,WNW,283,10.9,10.9,95,0.00,,,0.83,VWS V14.01,2013-06-13 06:55:00,
2013-06-13 02:56:00,65.7,64.3,29.60,West,277,8.0,10.9,96,0.00,,,0.83,VWS V14.01,2013-06-13 06:56:00,
2013-06-13 02:57:00,65.8,63.6,29.60,West,266,8.3,8.3,93,0.00,,,0.83,VWS V14.01,2013-06-13 06:57:00,
2013-06-13 02:58:00,65.5,64.4,29.59,West,266,6.4,8.3,96,0.00,,,0.83,VWS V14.01,2013-06-13 06:58:00,
2013-06-13 02:59:00,65.7,64.6,29.58,West,280,7.8,7.8,96,0.00,,,0.83,VWS V14.01,2013-06-13 06:59:00,
2013-06-13 03:00:00,65.6,64.6,29.58,West,266,8.1,8.1,96,0.00,,,0.83,VWS V14.01,2013-06-13 07:00:00,
2013-06-13 03:01:00,65.5,64.5,29.59,WNW,294,5.7,8.1,97,0.00,,,0.83,VWS V14.01,2013-06-13 07:01:00,
2013-06-13 03:02:00,65.8,64.8,29.59,West,271,8.8,8.8,96,0.00,,,0.83,VWS V14.01,2013-06-13 07:02:00,
2013-06-13 03:03:00,65.5,64.4,29.59,WNW,295,8.0,8.8,96,0.00,,,0.83,VWS V14.01,2013-06-13 07:03:00,
2013-06-13 03:04:00,65.7,64.7,29.60,WNW,295,9.5,9.5,96,0.00,,,0.83,VWS V14.01,2013-06-13 07:04:00,
2013-06-13 03:05:00,65.5,64.5,29.59,WNW,284,10.0,10.4,96,0.00,,,0.83,VWS V14.01,2013-06-13 07:05:00,
2013-06-13 03:06:00,65.4,64.4,29.59,NW,304,8.5,10.0,97,0.00,,,0.83,VWS V14.01,2013-06-13 07:06:00,
2013-06-13 03:07:00,65.4,64.5,29.59,WNW,285,8.1,8.1,97,0.00,,,0.83,VWS V14.01,2013-06-13 07:07:00,
2013-06-13 03:08:00,65.5,64.6,29.58,West,270,8.8,8.8,97,0.00,,,0.83,VWS V14.01,2013-06-13 07:08:00,
2013-06-13 03:09:00,65.1,64.3,29.58,WNW,300,6.4,8.8,97,0.00,,,0.83,VWS V14.01,2013-06-13 07:09:00,
2013-06-13 03:10:00,65.3,64.5,29.58,WNW,284,7.3,8.7,97,0.00,,,0.83,VWS V14.01,2013-06-13 07:10:00,
2013-06-13 03:11:00,65.4,64.6,29.60,WNW,294,8.7,8.7,97,0.00,,,0.83,VWS V14.01,2013-06-13 07:11:00,
2013-06-13 03:12:00,65.6,64.7,29.59,WNW,298,11.6,11.6,97,0.00,,,0.83,VWS V14.01,2013-06-13 07:12:00,
2013-06-13 03:13:00,65.6,64.6,29.59,West,279,9.0,11.6,97,0.00,,,0.83,VWS V14.01,2013-06-13 07:13:00,
2013-06-13 03:14:00,65.3,63.2,29.58,WNW,294,8.7,10.2,93,0.00,,,0.00,VWS V14.01,2013-06-13 07:14:00,
2013-06-13 03:15:00,65.6,64.6,29.60,WNW,293,10.9,10.9,97,0.00,,,0.83,VWS V14.01,2013-06-13 07:15:00,
2013-06-13 03:16:00,65.2,64.2,29.59,WNW,293,7.6,10.9,97,0.00,,,0.83,VWS V14.01,2013-06-13 07:16:00,
2013-06-13 03:17:00,65.3,64.3,29.60,West,268,6.9,7.8,97,0.00,,,0.83,VWS V14.01,2013-06-13 07:17:00,
2013-06-13 03:18:00,65.3,64.4,29.58,West,269,7.8,8.0,97,0.00,,,0.83,VWS V14.01,2013-06-13 07:18:00,
2013-06-13 03:19:00,65.0,64.1,29.58,West,273,8.3,8.7,97,0.00,,,0.83,VWS V14.01,2013-06-13 07:19:00,
2013-06-13 03:20:00,65.0,64.2,29.58,West,277,6.6,8.3,97,0.00,,,0.83,VWS V14.01,2013-06-13 07:20:00,
2013-06-13 03:21:00,64.9,64.1,29.59,WNW,287,6.3,8.5,97,0.00,,,0.83,VWS V14.01,2013-06-13 07:21:00,
2013-06-13 03:22:00,64.8,64.1,29.58,West,273,6.6,8.7,98,0.00,,,0.83,VWS V14.01,2013-06-13 07:22:00,
2013-06-13 03:23:00,64.8,64.1,29.58,West,277,5.7,6.6,98,0.00,,,0.83,VWS V14.01,2013-06-13 07:23:00,
2013-06-13 03:24:00,64.9,64.3,29.58,WNW,296,7.6,7.6,98,0.00,,,0.83,VWS V14.01,2013-06-13 07:24:00,
2013-06-13 03:25:00,65.0,64.5,29.57,West,277,7.3,7.8,98,0.00,,,0.83,VWS V14.01,2013-06-13 07:25:00,
2013-06-13 03:26:00,64.7,64.2,29.58,WNW,284,6.4,7.5,98,0.00,,,0.83,VWS V14.01,2013-06-13 07:26:00,
2013-06-13 03:27:00,64.8,64.3,29.58,West,274,8.0,8.0,98,0.00,,,0.83,VWS V14.01,2013-06-13 07:27:00,
2013-06-13 03:28:00,64.7,64.2,29.59,WNW,284,6.3,8.1,98,0.00,,,0.83,VWS V14.01,2013-06-13 07:28:00,
2013-06-13 03:29:00,64.8,64.3,29.58,WNW,282,8.0,8.0,98,0.00,,,0.83,VWS V14.01,2013-06-13 07:29:00,
2013-06-13 03:30:00,64.7,64.2,29.57,West,280,7.1,7.5,98,0.00,,,0.83,VWS V14.01,2013-06-13 07:30:00,
2013-06-13 03:31:00,64.6,64.1,29.58,WNW,289,5.7,7.1,98,0.00,,,0.83,VWS V14.01,2013-06-13 07:31:00,
2013-06-13 03:32:00,64.7,64.4,29.58,NW,304,6.1,6.1,99,0.00,,,0.83,VWS V14.01,2013-06-13 07:32:00,
2013-06-13 03:33:00,65.0,63.2,29.57,West,280,8.7,8.7,94,0.00,,,0.83,VWS V14.01,2013-06-13 07:33:00,
2013-06-13 03:34:00,65.0,64.6,29.57,NW,307,8.5,9.5,99,0.00,,,0.83,VWS V14.01,2013-06-13 07:34:00,
2013-06-13 03:35:00,64.8,64.4,29.57,WNW,303,7.5,8.5,99,0.00,,,0.83,VWS V14.01,2013-06-13 07:35:00,
2013-06-13 03:36:00,64.9,64.5,29.57,WNW,298,5.7,7.5,99,0.00,,,0.83,VWS V14.01,2013-06-13 07:36:00,
2013-06-13 03:37:00,64.8,64.4,29.57,NW,313,7.1,7.1,99,0.00,,,0.83,VWS V14.01,2013-06-13 07:37:00,
2013-06-13 03:38:00,64.7,64.3,29.56,NW,325,5.4,7.1,99,0.00,,,0.83,VWS V14.01,2013-06-13 07:38:00,
2013-06-13 03:39:00,64.8,64.4,29.57,NW,319,8.1,8.1,99,0.00,,,0.83,VWS V14.01,2013-06-13 07:39:00,
2013-06-13 03:40:00,65.0,64.6,29.56,NW,321,6.6,8.1,99,0.00,,,0.83,VWS V14.01,2013-06-13 07:40:00,
2013-06-13 03:41:00,65.0,64.5,29.55,NW,316,7.1,8.7,98,0.00,,,0.83,VWS V14.01,2013-06-13 07:41:00,
2013-06-13 03:42:00,64.9,64.4,29.56,NNW,337,6.8,7.1,98,0.00,,,0.83,VWS V14.01,2013-06-13 07:42:00,
2013-06-13 03:43:00,64.7,64.1,29.56,NW,323,3.0,6.8,98,0.00,,,0.83,VWS V14.01,2013-06-13 07:43:00,
2013-06-13 03:44:00,64.7,62.2,29.55,NW,316,4.9,4.9,92,0.00,,,0.83,VWS V14.01,2013-06-13 07:44:00,
2013-06-13 03:45:00,64.5,64.0,29.56,NNE,18,0.0,4.9,98,0.00,,,0.83,VWS V14.01,2013-06-13 07:45:00,
2013-06-13 03:46:00,64.6,64.2,29.56,NNW,331,2.2,2.2,98,0.00,,,0.83,VWS V14.01,2013-06-13 07:46:00,
2013-06-13 03:47:00,64.8,64.3,29.55,NW,312,3.4,3.7,98,0.00,,,0.83,VWS V14.01,2013-06-13 07:47:00,
2013-06-13 03:48:00,64.3,63.8,29.54,North,350,1.3,2.3,98,0.00,,,0.83,VWS V14.01,2013-06-13 07:48:00,
2013-06-13 03:49:00,64.5,64.0,29.54,NNE,20,0.0,2.3,98,0.00,,,0.83,VWS V14.01,2013-06-13 07:49:00,
2013-06-13 03:50:00,64.4,64.0,29.52,NNE,19,3.5,3.5,98,0.00,,,0.83,VWS V14.01,2013-06-13 07:50:00,
2013-06-13 03:51:00,64.2,63.7,29.52,NNE,30,3.5,4.9,98,0.00,,,0.83,VWS V14.01,2013-06-13 07:51:00,
2013-06-13 03:52:00,64.2,63.8,29.52,NE,39,3.5,4.2,99,0.00,,,0.83,VWS V14.01,2013-06-13 07:52:00,
2013-06-13 03:53:00,64.5,64.1,29.52,North,349,3.2,3.5,99,0.00,,,0.83,VWS V14.01,2013-06-13 07:53:00,
2013-06-13 03:54:00,64.5,64.1,29.53,WNW,299,2.7,4.2,99,0.00,,,0.83,VWS V14.01,2013-06-13 07:54:00,
2013-06-13 03:55:00,64.7,64.3,29.53,NNW,340,5.2,5.2,99,0.00,,,0.83,VWS V14.01,2013-06-13 07:55:00,
2013-06-13 03:56:00,64.7,64.3,29.54,West,269,2.8,5.2,99,0.00,,,0.83,VWS V14.01,2013-06-13 07:56:00,
2013-06-13 03:57:00,64.7,64.3,29.54,West,270,1.6,2.8,98,0.00,,,0.83,VWS V14.01,2013-06-13 07:57:00,
2013-06-13 03:58:00,64.9,64.4,29.54,NW,308,6.3,6.4,98,0.00,,,0.83,VWS V14.01,2013-06-13 07:58:00,
2013-06-13 03:59:00,64.8,64.2,29.53,WNW,292,3.2,6.3,98,0.00,,,0.83,VWS V14.01,2013-06-13 07:59:00,
2013-06-13 04:01:00,64.8,64.2,29.54,NW,321,3.7,3.7,98,0.00,,,0.83,VWS V14.01,2013-06-13 08:01:00,
2013-06-13 04:02:00,65.1,64.3,29.55,WNW,292,5.7,5.7,97,0.00,,,0.83,VWS V14.01,2013-06-13 08:02:00,
2013-06-13 04:03:00,64.9,64.1,29.55,WNW,283,5.6,6.9,97,0.00,,,0.83,VWS V14.01,2013-06-13 08:03:00,
2013-06-13 04:04:00,64.9,64.2,29.55,WNW,296,7.3,7.3,97,0.00,,,0.83,VWS V14.01,2013-06-13 08:04:00,
2013-06-13 04:05:00,65.2,64.4,29.56,WSW,254,8.0,8.0,97,0.00,,,0.83,VWS V14.01,2013-06-13 08:05:00,
2013-06-13 04:06:00,65.3,64.5,29.56,WNW,299,8.1,12.4,97,0.00,,,0.83,VWS V14.01,2013-06-13 08:06:00,
2013-06-13 04:07:00,64.9,64.1,29.56,West,275,8.8,8.8,97,0.00,,,0.83,VWS V14.01,2013-06-13 08:07:00,
2013-06-13 04:08:00,65.3,64.5,29.57,West,277,11.4,11.4,97,0.00,,,0.83,VWS V14.01,2013-06-13 08:08:00,
2013-06-13 04:09:00,65.3,64.5,29.57,West,279,11.1,11.4,97,0.00,,,0.83,VWS V14.01,2013-06-13 08:09:00,
2013-06-13 04:10:00,65.2,64.3,29.57,West,267,9.9,11.1,97,0.00,,,0.83,VWS V14.01,2013-06-13 08:10:00,
2013-06-13 04:11:00,65.5,64.5,29.57,WNW,282,10.7,10.7,97,0.00,,,0.83,VWS V14.01,2013-06-13 08:11:00,
2013-06-13 04:12:00,65.2,64.2,29.58,West,278,10.0,10.7,97,0.00,,,0.83,VWS V14.01,2013-06-13 08:12:00,
2013-06-13 04:13:00,65.1,64.1,29.58,West,281,8.0,10.0,97,0.00,,,0.83,VWS V14.01,2013-06-13 08:13:00,
2013-06-13 04:14:00,65.4,64.3,29.58,WNW,283,10.2,11.4,96,0.00,,,0.83,VWS V14.01,2013-06-13 08:14:00,
2013-06-13 04:15:00,65.2,64.1,29.58,WNW,294,9.2,10.7,96,0.00,,,0.83,VWS V14.01,2013-06-13 08:15:00,
2013-06-13 04:16:00,65.2,64.1,29.58,WNW,292,8.7,9.2,96,0.00,,,0.83,VWS V14.01,2013-06-13 08:16:00,
2013-06-13 04:17:00,65.1,63.8,29.58,NNW,348,9.3,9.3,96,0.00,,,0.83,VWS V14.01,2013-06-13 08:17:00,
2013-06-13 04:18:00,65.2,63.8,29.59,NW,310,9.5,9.5,95,0.00,,,0.83,VWS V14.01,2013-06-13 08:18:00,
2013-06-13 04:19:00,65.1,63.7,29.58,NNW,330,5.4,5.4,95,0.00,,,0.83,VWS V14.01,2013-06-13 08:19:00,
2013-06-13 04:20:00,65.1,63.8,29.58,NW,319,6.1,6.9,95,0.00,,,0.83,VWS V14.01,2013-06-13 08:20:00,
2013-06-13 04:21:00,65.1,63.8,29.58,NW,305,5.7,6.1,95,0.00,,,0.83,VWS V14.01,2013-06-13 08:21:00,
2013-06-13 04:22:00,65.3,64.0,29.58,NNW,332,5.1,5.1,96,0.00,,,0.83,VWS V14.01,2013-06-13 08:22:00,
2013-06-13 04:23:00,65.1,63.8,29.59,WNW,295,6.3,6.3,95,0.00,,,0.83,VWS V14.01,2013-06-13 08:23:00,
2013-06-13 04:24:00,65.4,64.0,29.58,NNW,330,3.4,6.3,95,0.00,,,0.83,VWS V14.01,2013-06-13 08:24:00,
2013-06-13 04:25:00,65.3,63.9,29.59,NW,305,9.3,9.3,95,0.00,,,0.83,VWS V14.01,2013-06-13 08:25:00,
2013-06-13 04:26:00,65.3,63.7,29.59,North,351,4.7,9.3,95,0.00,,,0.83,VWS V14.01,2013-06-13 08:26:00,
2013-06-13 04:27:00,65.5,64.0,29.60,WNW,301,10.2,10.2,95,0.00,,,0.83,VWS V14.01,2013-06-13 08:27:00,
2013-06-13 04:28:00,65.6,63.9,29.60,NNW,328,10.4,10.4,94,0.00,,,0.83,VWS V14.01,2013-06-13 08:28:00,
2013-06-13 04:29:00,65.4,63.6,29.59,NNW,327,6.9,6.9,94,0.00,,,0.83,VWS V14.01,2013-06-13 08:29:00,
2013-06-13 04:30:00,65.3,63.5,29.60,NW,313,0.0,6.9,94,0.00,,,0.83,VWS V14.01,2013-06-13 08:30:00,
2013-06-13 04:31:00,65.4,63.6,29.60,NW,313,6.8,9.9,94,0.00,,,0.83,VWS V14.01,2013-06-13 08:31:00,
2013-06-13 04:32:00,65.3,63.6,29.60,NW,321,9.3,9.9,94,0.00,,,0.83,VWS V14.01,2013-06-13 08:32:00,
2013-06-13 04:33:00,65.3,63.5,29.59,North,351,4.0,9.3,94,0.00,,,0.83,VWS V14.01,2013-06-13 08:33:00,
2013-06-13 04:34:00,65.4,63.6,29.60,NNW,348,5.6,5.6,94,0.00,,,0.83,VWS V14.01,2013-06-13 08:34:00,
2013-06-13 04:35:00,65.2,63.5,29.60,NW,310,4.2,5.6,94,0.00,,,0.83,VWS V14.01,2013-06-13 08:35:00,
2013-06-13 04:36:00,65.4,63.5,29.60,NW,306,5.4,7.5,94,0.00,,,0.83,VWS V14.01,2013-06-13 08:36:00,
2013-06-13 04:37:00,65.2,63.4,29.62,West,269,2.0,5.6,94,0.00,,,0.83,VWS V14.01,2013-06-13 08:37:00,
2013-06-13 04:38:00,65.4,63.4,29.61,NNW,334,10.2,10.2,93,0.00,,,0.83,VWS V14.01,2013-06-13 08:38:00,
2013-06-13 04:39:00,65.6,63.6,29.61,NW,323,9.2,10.2,93,0.00,,,0.83,VWS V14.01,2013-06-13 08:39:00,
2013-06-13 04:40:00,65.5,63.4,29.62,North,10,5.9,9.2,93,0.00,,,0.83,VWS V14.01,2013-06-13 08:40:00,
2013-06-13 04:41:00,65.6,63.4,29.62,NW,310,5.1,5.9,93,0.00,,,0.83,VWS V14.01,2013-06-13 08:41:00,
2013-06-13 04:42:00,65.7,63.3,29.62,NNW,348,9.2,9.2,92,0.00,,,0.83,VWS V14.01,2013-06-13 08:42:00,
2013-06-13 04:43:00,65.6,63.2,29.63,NW,322,13.4,13.4,92,0.00,,,0.83,VWS V14.01,2013-06-13 08:43:00,
2013-06-13 04:44:00,65.5,63.0,29.64,NW,317,9.0,13.4,92,0.00,,,0.83,VWS V14.01,2013-06-13 08:44:00,
2013-06-13 04:45:00,65.5,63.0,29.63,NW,325,7.6,9.0,92,0.00,,,0.83,VWS V14.01,2013-06-13 08:45:00,
2013-06-13 04:46:00,65.4,62.8,29.63,NNW,331,4.2,6.1,91,0.00,,,0.83,VWS V14.01,2013-06-13 08:46:00,
2013-06-13 04:47:00,65.3,62.9,29.62,NW,326,9.7,9.7,92,0.00,,,0.83,VWS V14.01,2013-06-13 08:47:00,
2013-06-13 04:48:00,65.8,63.1,29.61,NW,322,12.3,12.3,91,0.00,,,0.83,VWS V14.01,2013-06-13 08:48:00,
2013-06-13 04:49:00,65.5,63.0,29.62,NW,323,7.1,12.3,91,0.00,,,0.83,VWS V14.01,2013-06-13 08:49:00,
2013-06-13 04:50:00,65.4,63.0,29.62,WNW,294,5.6,7.1,92,0.00,,,0.83,VWS V14.01,2013-06-13 08:50:00,
2013-06-13 04:51:00,65.3,62.9,29.63,North,351,4.7,5.6,92,0.00,,,0.83,VWS V14.01,2013-06-13 08:51:00,
2013-06-13 04:52:00,65.3,61.2,29.62,NW,314,5.4,6.1,86,0.00,,,0.83,VWS V14.01,2013-06-13 08:52:00,
2013-06-13 04:53:00,65.2,63.0,29.63,NW,313,3.7,5.4,93,0.00,,,0.83,VWS V14.01,2013-06-13 08:53:00,
2013-06-13 04:54:00,65.7,63.2,29.63,NW,322,9.0,9.0,92,0.00,,,0.83,VWS V14.01,2013-06-13 08:54:00,
2013-06-13 04:55:00,65.6,63.0,29.63,NW,321,7.3,9.0,91,0.00,,,0.83,VWS V14.01,2013-06-13 08:55:00,
2013-06-13 04:56:00,65.8,63.1,29.63,NW,322,8.8,8.8,91,0.00,,,0.83,VWS V14.01,2013-06-13 08:56:00,
2013-06-13 04:57:00,65.6,62.9,29.63,NW,310,9.2,9.2,91,0.00,,,0.83,VWS V14.01,2013-06-13 08:57:00,
2013-06-13 04:58:00,65.5,62.8,29.63,NW,311,4.0,8.7,91,0.00,,,0.83,VWS V14.01,2013-06-13 08:58:00,
2013-06-13 04:59:00,65.3,62.7,29.62,NNW,344,5.2,5.2,91,0.00,,,0.83,VWS V14.01,2013-06-13 08:59:00,
2013-06-13 05:00:00,65.4,62.9,29.62,NE,44,3.9,5.2,92,0.00,,,0.83,VWS V14.01,2013-06-13 09:00:00,
2013-06-13 05:01:00,65.4,62.8,29.63,North,351,3.4,5.2,91,0.00,,,0.83,VWS V14.01,2013-06-13 09:01:00,
2013-06-13 05:02:00,65.2,62.6,29.63,NNW,344,1.1,3.4,92,0.00,,,0.83,VWS V14.01,2013-06-13 09:02:00,
2013-06-13 05:03:00,65.1,62.6,29.63,NNW,334,5.4,6.9,92,0.00,,,0.83,VWS V14.01,2013-06-13 09:03:00,
2013-06-13 05:04:00,65.5,63.0,29.64,NE,51,2.0,5.4,92,0.00,,,0.83,VWS V14.01,2013-06-13 09:04:00,
2013-06-13 05:05:00,65.3,62.8,29.63,NNW,330,3.5,5.7,92,0.00,,,0.83,VWS V14.01,2013-06-13 09:05:00,
2013-06-13 05:06:00,65.3,62.8,29.63,NNW,340,2.5,2.5,92,0.00,,,0.83,VWS V14.01,2013-06-13 09:06:00,
2013-06-13 05:07:00,65.2,62.8,29.63,NW,317,2.0,3.2,92,0.00,,,0.83,VWS V14.01,2013-06-13 09:07:00,
2013-06-13 05:08:00,65.2,62.8,29.63,NW,317,2.0,3.2,92,0.00,,,0.83,VWS V14.01,2013-06-13 09:08:00,
2013-06-13 05:09:00,65.3,63.0,29.63,WNW,288,3.9,3.9,92,0.00,,,0.83,VWS V14.01,2013-06-13 09:09:00,
2013-06-13 05:10:00,65.1,62.9,29.63,North,351,4.4,5.6,93,0.00,,,0.83,VWS V14.01,2013-06-13 09:10:00,
2013-06-13 05:11:00,65.2,62.9,29.63,WNW,299,3.2,4.5,92,0.00,,,0.83,VWS V14.01,2013-06-13 09:11:00,
2013-06-13 05:12:00,65.2,63.0,29.63,WNW,301,3.4,4.5,92,0.00,,,0.83,VWS V14.01,2013-06-13 09:12:00,
2013-06-13 05:13:00,65.2,63.0,29.63,WNW,301,3.4,4.5,92,0.00,,,0.83,VWS V14.01,2013-06-13 09:13:00,
2013-06-13 05:14:00,65.3,63.1,29.63,NW,308,7.6,7.6,92,0.00,,,0.83,VWS V14.01,2013-06-13 09:14:00,
2013-06-13 05:15:00,65.0,62.7,29.65,NNW,345,8.1,10.2,92,0.00,,,0.83,VWS V14.01,2013-06-13 09:15:00,
2013-06-13 05:16:00,65.0,62.8,29.64,NW,324,2.8,8.1,92,0.00,,,0.83,VWS V14.01,2013-06-13 09:16:00,
2013-06-13 05:17:00,65.1,62.9,29.63,NE,43,3.2,3.2,92,0.00,,,0.83,VWS V14.01,2013-06-13 09:17:00,
2013-06-13 05:18:00,65.0,62.8,29.62,NW,322,5.7,7.8,92,0.00,,,0.83,VWS V14.01,2013-06-13 09:18:00,
2013-06-13 05:19:00,65.2,62.8,29.62,NNE,15,3.9,7.1,92,0.00,,,0.83,VWS V14.01,2013-06-13 09:19:00,
2013-06-13 05:20:00,64.8,62.5,29.62,NNW,337,2.8,3.9,92,0.00,,,0.83,VWS V14.01,2013-06-13 09:20:00,
2013-06-13 05:21:00,64.8,62.4,29.64,NNW,341,5.7,7.1,92,0.00,,,0.83,VWS V14.01,2013-06-13 09:21:00,
2013-06-13 05:22:00,64.9,62.6,29.64,NW,311,3.5,5.7,92,0.00,,,0.83,VWS V14.01,2013-06-13 09:22:00,
2013-06-13 05:23:00,64.9,60.8,29.64,NW,319,3.7,7.1,87,0.00,,,0.83,VWS V14.01,2013-06-13 09:23:00,
2013-06-13 05:24:00,65.0,62.7,29.64,North,349,4.5,4.5,92,0.00,,,0.83,VWS V14.01,2013-06-13 09:24:00,
2013-06-13 05:25:00,64.9,62.6,29.64,North,6,2.3,4.5,92,0.00,,,0.83,VWS V14.01,2013-06-13 09:25:00,
2013-06-13 05:26:00,64.7,62.6,29.63,NNE,12,0.0,2.7,93,0.00,,,0.83,VWS V14.01,2013-06-13 09:26:00,
2013-06-13 05:27:00,64.9,62.8,29.62,NNW,332,3.4,4.2,93,0.00,,,0.83,VWS V14.01,2013-06-13 09:27:00,
2013-06-13 05:28:00,65.0,62.9,29.62,NW,310,4.2,7.8,93,0.00,,,0.83,VWS V14.01,2013-06-13 09:28:00,
2013-06-13 05:29:00,64.9,62.7,29.62,NW,325,5.6,5.6,93,0.00,,,0.83,VWS V14.01,2013-06-13 09:29:00,
2013-06-13 05:30:00,65.1,62.9,29.64,NW,311,6.1,9.2,93,0.00,,,0.83,VWS V14.01,2013-06-13 09:30:00,
2013-06-13 05:31:00,65.0,62.8,29.66,NW,321,7.8,7.8,92,0.00,,,0.83,VWS V14.01,2013-06-13 09:31:00,
2013-06-13 05:32:00,65.1,62.8,29.64,NW,309,8.0,8.0,92,0.00,,,0.83,VWS V14.01,2013-06-13 09:32:00,
2013-06-13 05:33:00,65.2,62.9,29.64,NW,309,8.8,8.8,92,0.00,,,0.83,VWS V14.01,2013-06-13 09:33:00,
2013-06-13 05:34:00,65.2,62.9,29.64,NW,305,7.3,8.8,92,0.00,,,0.83,VWS V14.01,2013-06-13 09:34:00,
2013-06-13 05:35:00,65.2,62.9,29.64,NNW,333,7.1,8.3,92,0.00,,,0.83,VWS V14.01,2013-06-13 09:35:00,
2013-06-13 05:36:00,64.7,62.5,29.65,NW,304,7.5,8.5,93,0.00,,,0.83,VWS V14.01,2013-06-13 09:36:00,
2013-06-13 05:37:00,65.0,62.3,29.65,NW,318,9.0,9.0,91,0.00,,,0.83,VWS V14.01,2013-06-13 09:37:00,
2013-06-13 05:38:00,64.8,62.8,29.65,NW,309,9.3,9.3,93,0.00,,,0.83,VWS V14.01,2013-06-13 09:38:00,
2013-06-13 05:39:00,64.9,62.9,29.65,NW,326,8.7,8.8,93,0.00,,,0.83,VWS V14.01,2013-06-13 09:39:00,
2013-06-13 05:40:00,64.6,62.7,29.64,NW,319,8.7,8.7,93,0.00,,,0.83,VWS V14.01,2013-06-13 09:40:00,
2013-06-13 05:41:00,65.0,63.0,29.64,NW,322,11.6,11.6,93,0.00,,,0.83,VWS V14.01,2013-06-13 09:41:00,
2013-06-13 05:42:00,64.6,62.7,29.64,NNW,331,4.7,11.6,94,0.00,,,0.83,VWS V14.01,2013-06-13 09:42:00,
2013-06-13 05:43:00,64.9,63.0,29.64,NW,309,6.3,6.3,94,0.00,,,0.83,VWS V14.01,2013-06-13 09:43:00,
2013-06-13 05:44:00,64.6,62.7,29.64,NNW,338,5.6,6.3,94,0.00,,,0.83,VWS V14.01,2013-06-13 09:44:00,
2013-06-13 05:45:00,64.6,62.8,29.64,NW,323,5.1,6.6,94,0.00,,,0.83,VWS V14.01,2013-06-13 09:45:00,
2013-06-13 05:46:00,64.4,62.6,29.64,North,0,2.8,5.1,94,0.00,,,0.83,VWS V14.01,2013-06-13 09:46:00,
2013-06-13 05:47:00,64.7,62.9,29.64,NW,308,4.7,4.7,94,0.00,,,0.83,VWS V14.01,2013-06-13 09:47:00,
2013-06-13 05:48:00,64.7,62.9,29.64,NW,315,5.4,5.4,94,0.00,,,0.83,VWS V14.01,2013-06-13 09:48:00,
2013-06-13 05:49:00,64.4,62.6,29.64,NW,314,3.9,5.4,94,0.00,,,0.83,VWS V14.01,2013-06-13 09:49:00,
2013-06-13 05:50:00,65.0,63.2,29.64,NW,305,7.8,7.8,94,0.00,,,0.83,VWS V14.01,2013-06-13 09:50:00,
2013-06-13 05:51:00,64.5,62.8,29.64,NW,318,4.4,6.1,94,0.00,,,0.83,VWS V14.01,2013-06-13 09:51:00,
2013-06-13 05:52:00,64.3,62.7,29.65,NW,323,2.8,2.8,95,0.00,,,0.83,VWS V14.01,2013-06-13 09:52:00,
2013-06-13 05:53:00,64.8,63.2,29.64,NW,320,7.5,7.5,94,0.00,,,0.83,VWS V14.01,2013-06-13 09:53:00,
2013-06-13 05:54:00,64.7,63.0,29.64,NW,319,4.5,4.5,94,0.00,,,0.83,VWS V14.01,2013-06-13 09:54:00,
2013-06-13 05:55:00,64.7,63.0,29.64,NW,325,5.6,5.6,94,0.00,,,0.83,VWS V14.01,2013-06-13 09:55:00,
2013-06-13 05:56:00,64.6,63.0,29.64,NW,314,7.3,7.3,94,0.00,,,0.83,VWS V14.01,2013-06-13 09:56:00,
2013-06-13 05:57:00,64.8,63.1,29.65,NW,319,6.8,8.3,94,0.00,,,0.83,VWS V14.01,2013-06-13 09:57:00,
2013-06-13 05:58:00,64.5,62.8,29.65,NW,326,5.6,7.3,94,0.00,,,0.83,VWS V14.01,2013-06-13 09:58:00,
2013-06-13 05:59:00,64.7,63.1,29.65,NW,321,7.6,7.6,95,0.00,,,0.83,VWS V14.01,2013-06-13 09:59:00,
2013-06-13 06:00:00,64.7,63.1,29.65,NW,304,8.5,8.5,95,0.00,,,0.83,VWS V14.01,2013-06-13 10:00:00,
2013-06-13 06:01:00,64.7,63.1,29.65,NW,304,8.5,8.5,95,0.00,,,0.83,VWS V14.01,2013-06-13 10:01:00,
2013-06-13 06:02:00,64.5,63.0,29.66,NW,310,6.6,8.5,95,0.00,,,0.83,VWS V14.01,2013-06-13 10:02:00,
2013-06-13 06:03:00,64.5,63.0,29.66,NW,310,6.6,8.5,95,0.00,,,0.83,VWS V14.01,2013-06-13 10:03:00,
2013-06-13 06:04:00,64.4,62.9,29.65,NW,312,6.9,6.9,95,0.00,,,0.83,VWS V14.01,2013-06-13 10:04:00,
2013-06-13 06:05:00,64.7,63.3,29.65,NW,306,8.7,8.7,95,0.00,,,0.83,VWS V14.01,2013-06-13 10:05:00,
2013-06-13 06:06:00,64.3,62.9,29.65,WNW,302,6.1,8.7,95,0.00,,,0.83,VWS V14.01,2013-06-13 10:06:00,
2013-06-13 06:10:00,64.3,63.1,29.65,NW,312,7.8,8.7,96,0.00,,,0.83,VWS V14.01,2013-06-13 10:10:00,
2013-06-13 06:11:00,64.4,63.2,29.65,WNW,302,6.9,8.7,96,0.00,,,0.83,VWS V14.01,2013-06-13 10:11:00,
2013-06-13 06:13:00,64.4,63.1,29.65,NW,316,7.3,8.7,96,0.00,,,0.83,VWS V14.01,2013-06-13 10:13:00,
2013-06-13 06:15:00,64.3,63.1,29.65,NNW,330,5.1,8.7,96,0.00,,,0.83,VWS V14.01,2013-06-13 10:15:00,
2013-06-13 06:16:00,64.3,63.2,29.64,NNW,335,4.5,8.7,96,0.00,,,0.83,VWS V14.01,2013-06-13 10:16:00,
2013-06-13 06:18:00,64.5,63.2,29.65,NW,317,5.4,8.7,96,0.00,,,0.83,VWS V14.01,2013-06-13 10:18:00,
2013-06-13 06:21:00,64.4,63.2,29.65,NW,317,3.4,8.7,96,0.00,,,0.83,VWS V14.01,2013-06-13 10:21:00,
2013-06-13 06:22:00,64.6,63.3,29.65,NW,320,5.2,8.7,96,0.00,,,0.83,VWS V14.01,2013-06-13 10:22:00,
2013-06-13 06:23:00,64.6,63.3,29.65,NW,313,5.4,8.7,96,0.00,,,0.00,VWS V14.01,2013-06-13 10:23:00,
2013-06-13 06:24:00,64.6,63.3,29.65,NW,313,5.4,8.7,96,0.00,,,0.83,VWS V14.01,2013-06-13 10:24:00,
2013-06-13 06:26:00,64.5,63.2,29.64,NE,44,8.5,8.7,96,0.00,,,0.83,VWS V14.01,2013-06-13 10:26:00,
2013-06-13 06:27:00,64.5,63.1,29.64,NW,325,6.6,8.7,95,0.00,,,0.83,VWS V14.01,2013-06-13 10:27:00,
2013-06-13 06:28:00,64.6,63.2,29.64,WNW,299,7.3,8.7,95,0.00,,,0.83,VWS V14.01,2013-06-13 10:28:00,
2013-06-13 06:29:00,64.7,63.3,29.64,NW,319,7.6,8.7,95,0.00,,,0.83,VWS V14.01,2013-06-13 10:29:00,
2013-06-13 06:31:00,64.5,63.0,29.65,NW,320,8.1,8.7,95,0.00,,,0.83,VWS V14.01,2013-06-13 10:31:00,
2013-06-13 06:32:00,64.3,62.9,29.65,NNW,327,6.1,8.7,95,0.00,,,0.83,VWS V14.01,2013-06-13 10:32:00,
2013-06-13 06:33:00,64.4,63.1,29.65,NW,318,7.5,8.7,95,0.00,,,0.83,VWS V14.01,2013-06-13 10:33:00,
2013-06-13 06:34:00,64.3,63.0,29.65,NNW,328,4.0,8.7,96,0.00,,,0.83,VWS V14.01,2013-06-13 10:34:00,
2013-06-13 06:35:00,64.2,63.0,29.65,NW,317,5.4,8.7,96,0.00,,,0.83,VWS V14.01,2013-06-13 10:35:00,
2013-06-13 06:36:00,64.6,63.5,29.65,NW,311,9.5,9.5,96,0.00,,,0.83,VWS V14.01,2013-06-13 10:36:00,
2013-06-13 06:37:00,64.6,63.3,29.65,NW,314,7.5,9.5,96,0.00,,,0.83,VWS V14.01,2013-06-13 10:37:00,
2013-06-13 06:39:00,64.6,63.4,29.65,NW,320,6.1,9.5,96,0.00,,,0.83,VWS V14.01,2013-06-13 10:39:00,
2013-06-13 06:40:00,64.5,63.3,29.65,NW,312,6.1,9.5,96,0.00,,,0.83,VWS V14.01,2013-06-13 10:40:00,
2013-06-13 06:41:00,64.6,63.3,29.65,NW,320,8.3,10.0,96,0.00,,,0.83,VWS V14.01,2013-06-13 10:41:00,
2013-06-13 06:44:00,64.7,63.2,29.65,NW,316,7.3,10.0,95,0.00,,,0.00,VWS V14.01,2013-06-13 10:44:00,
2013-06-13 06:46:00,64.7,63.3,29.66,NNW,327,7.1,10.0,95,0.00,,,0.83,VWS V14.01,2013-06-13 10:46:00,
2013-06-13 06:48:00,64.6,63.3,29.65,NW,313,6.4,10.0,95,0.00,,,0.83,VWS V14.01,2013-06-13 10:48:00,
2013-06-13 06:51:00,64.7,62.0,29.65,WNW,298,7.5,10.0,91,0.00,,,0.83,VWS V14.01,2013-06-13 10:51:00,
2013-06-13 06:52:00,64.7,63.1,29.65,NW,325,4.2,10.0,95,0.00,,,0.83,VWS V14.01,2013-06-13 10:52:00,
2013-06-13 06:53:00,64.7,62.3,29.65,NNW,348,3.4,10.0,92,0.00,,,0.83,VWS V14.01,2013-06-13 10:53:00,
2013-06-13 06:55:00,64.6,63.2,29.65,NNW,345,5.7,10.0,95,0.00,,,0.83,VWS V14.01,2013-06-13 10:55:00,
2013-06-13 06:57:00,64.9,63.4,29.65,WNW,299,7.3,10.0,95,0.00,,,0.83,VWS V14.01,2013-06-13 10:57:00,
2013-06-13 06:59:00,64.7,63.2,29.65,WNW,298,2.8,10.0,95,0.00,,,0.83,VWS V14.01,2013-06-13 10:59:00,
2013-06-13 07:01:00,64.7,63.1,29.65,NNW,332,2.8,10.0,95,0.00,,,0.83,VWS V14.01,2013-06-13 11:01:00,
2013-06-13 07:02:00,64.7,63.2,29.65,NNW,348,3.9,10.0,95,0.00,,,0.83,VWS V14.01,2013-06-13 11:02:00,
2013-06-13 07:03:00,64.8,63.2,29.65,NNE,14,3.9,10.0,95,0.00,,,0.83,VWS V14.01,2013-06-13 11:03:00,
2013-06-13 07:04:00,64.8,63.2,29.65,North,7,4.5,10.0,95,0.00,,,0.83,VWS V14.01,2013-06-13 11:04:00,
2013-06-13 07:05:00,64.7,63.1,29.65,NNW,335,6.1,10.0,94,0.00,,,0.83,VWS V14.01,2013-06-13 11:05:00,
2013-06-13 07:06:00,64.4,62.9,29.65,NW,312,6.9,6.9,95,0.00,,,0.83,VWS V14.01,2013-06-13 11:06:00,
2013-06-13 07:07:00,64.6,63.0,29.65,NNW,338,6.3,10.0,95,0.00,,,0.83,VWS V14.01,2013-06-13 11:07:00,
2013-06-13 07:08:00,64.6,63.0,29.65,NNW,344,3.7,6.3,95,0.00,,,0.83,VWS V14.01,2013-06-13 11:08:00,
2013-06-13 07:09:00,64.5,63.1,29.65,NNW,332,5.2,5.2,95,0.00,,,0.83,VWS V14.01,2013-06-13 11:09:00,
2013-06-13 07:10:00,64.3,62.9,29.65,NNW,336,5.1,5.2,95,0.00,,,0.83,VWS V14.01,2013-06-13 11:10:00,
2013-06-13 07:11:00,64.3,62.9,29.65,NW,319,7.5,7.5,95,0.00,,,0.83,VWS V14.01,2013-06-13 11:11:00,
2013-06-13 07:12:00,64.3,63.1,29.65,WNW,295,6.4,6.8,96,0.00,,,0.83,VWS V14.01,2013-06-13 11:12:00,
2013-06-13 07:13:00,64.3,63.2,29.65,NNW,332,6.4,6.8,96,0.00,,,0.83,VWS V14.01,2013-06-13 11:13:00,
2013-06-13 07:14:00,64.2,63.1,29.65,NNE,12,7.6,7.6,96,0.00,,,0.83,VWS V14.01,2013-06-13 11:14:00,
2013-06-13 07:15:00,64.2,63.2,29.65,NNE,14,3.4,7.6,97,0.00,,,0.83,VWS V14.01,2013-06-13 11:15:00,
2013-06-13 07:16:00,64.2,63.1,29.67,NW,321,4.2,5.9,96,0.00,,,0.83,VWS V14.01,2013-06-13 11:16:00,
2013-06-13 07:17:00,64.2,62.8,29.66,NNE,13,9.5,9.5,95,0.00,,,0.83,VWS V14.01,2013-06-13 11:17:00,
2013-06-13 07:18:00,64.3,62.6,29.66,NNE,29,6.8,9.5,94,0.00,,,0.83,VWS V14.01,2013-06-13 11:18:00,
2013-06-13 07:19:00,64.1,62.0,29.65,NNE,33,2.7,4.0,93,0.00,,,0.83,VWS V14.01,2013-06-13 11:19:00,
2013-06-13 07:20:00,64.1,62.0,29.65,NNE,33,2.7,4.0,93,0.00,,,0.83,VWS V14.01,2013-06-13 11:20:00,
2013-06-13 07:21:00,64.0,61.3,29.66,NNE,17,5.4,5.9,91,0.00,,,0.83,VWS V14.01,2013-06-13 11:21:00,
2013-06-13 07:22:00,64.2,61.0,29.66,NE,35,7.3,7.3,89,0.00,,,0.83,VWS V14.01,2013-06-13 11:22:00,
2013-06-13 07:23:00,64.1,60.4,29.65,North,4,8.8,8.8,88,0.00,,,0.83,VWS V14.01,2013-06-13 11:23:00,
2013-06-13 07:24:00,63.9,59.5,29.65,North,360,10.2,10.2,85,0.00,,,0.83,VWS V14.01,2013-06-13 11:24:00,
2013-06-13 07:25:00,64.1,58.5,29.66,NW,307,11.7,13.6,82,0.00,,,0.83,VWS V14.01,2013-06-13 11:25:00,
2013-06-13 07:26:00,64.0,58.3,29.66,NNE,14,5.6,11.7,82,0.00,,,0.83,VWS V14.01,2013-06-13 11:26:00,
2013-06-13 07:27:00,63.9,58.3,29.66,NNE,24,5.4,5.6,82,0.00,,,0.83,VWS V14.01,2013-06-13 11:27:00,
2013-06-13 07:28:00,63.9,57.0,29.66,NNE,26,9.9,12.3,78,0.00,,,0.83,VWS V14.01,2013-06-13 11:28:00,
2013-06-13 07:29:00,64.1,56.2,29.66,NNE,23,13.6,13.6,75,0.00,,,0.83,VWS V14.01,2013-06-13 11:29:00,
2013-06-13 07:30:00,63.8,55.4,29.66,NE,39,12.6,13.6,74,0.00,,,0.83,VWS V14.01,2013-06-13 11:30:00,
2013-06-13 07:31:00,63.5,55.7,29.66,NE,48,9.3,12.6,76,0.00,,,0.83,VWS V14.01,2013-06-13 11:31:00,
2013-06-13 07:32:00,63.9,55.6,29.66,NE,38,10.7,10.7,74,0.00,,,0.83,VWS V14.01,2013-06-13 11:32:00,
2013-06-13 07:33:00,63.9,55.0,29.66,NE,39,14.5,14.5,73,0.00,,,0.83,VWS V14.01,2013-06-13 11:33:00,
2013-06-13 07:34:00,63.9,54.9,29.66,NE,45,12.1,14.5,72,0.00,,,0.83,VWS V14.01,2013-06-13 11:34:00,
2013-06-13 07:35:00,63.9,54.6,29.66,NE,53,10.2,12.1,72,0.00,,,0.83,VWS V14.01,2013-06-13 11:35:00,
2013-06-13 07:36:00,63.7,54.7,29.65,NNE,23,6.1,6.1,72,0.00,,,0.83,VWS V14.01,2013-06-13 11:36:00,
2013-06-13 07:37:00,63.8,53.2,29.66,NE,53,8.1,11.4,68,0.00,,,0.83,VWS V14.01,2013-06-13 11:37:00,
2013-06-13 07:38:00,63.7,53.3,29.66,NE,50,8.3,8.3,69,0.00,,,0.83,VWS V14.01,2013-06-13 11:38:00,
2013-06-13 07:39:00,63.6,53.1,29.66,East,83,8.8,8.8,69,0.00,,,0.83,VWS V14.01,2013-06-13 11:39:00,
2013-06-13 07:40:00,63.6,52.3,29.66,NE,50,10.2,19.3,67,0.00,,,0.83,VWS V14.01,2013-06-13 11:40:00,
2013-06-13 07:41:00,63.6,51.0,29.66,ENE,62,7.3,10.2,63,0.00,,,0.83,VWS V14.01,2013-06-13 11:41:00,
2013-06-13 07:42:00,63.4,52.5,29.66,NE,37,6.3,7.3,68,0.00,,,0.83,VWS V14.01,2013-06-13 11:42:00,
2013-06-13 07:43:00,63.4,52.1,29.66,ENE,64,8.1,8.1,67,0.00,,,0.83,VWS V14.01,2013-06-13 11:43:00,
2013-06-13 07:44:00,63.6,51.8,29.66,NE,42,9.0,9.0,65,0.00,,,0.83,VWS V14.01,2013-06-13 11:44:00,
2013-06-13 07:45:00,63.4,51.5,29.66,NE,37,7.5,9.0,65,0.00,,,0.83,VWS V14.01,2013-06-13 11:45:00,
2013-06-13 07:46:00,63.4,51.4,29.65,NE,44,8.5,8.5,65,0.00,,,0.83,VWS V14.01,2013-06-13 11:46:00,
2013-06-13 07:47:00,63.5,50.2,29.66,NNE,29,7.6,9.5,62,0.00,,,0.83,VWS V14.01,2013-06-13 11:47:00,
2013-06-13 07:48:00,63.4,49.9,29.66,NE,42,9.0,12.3,62,0.00,,,0.83,VWS V14.01,2013-06-13 11:48:00,
2013-06-13 07:49:00,63.2,50.2,29.66,ENE,66,7.1,9.0,62,0.00,,,0.83,VWS V14.01,2013-06-13 11:49:00,
2013-06-13 07:50:00,63.3,50.1,29.66,NNW,339,7.8,9.3,62,0.00,,,0.83,VWS V14.01,2013-06-13 11:50:00,
2013-06-13 07:51:00,63.4,50.2,29.67,NE,47,9.2,9.2,62,0.00,,,0.83,VWS V14.01,2013-06-13 11:51:00,
2013-06-13 07:52:00,63.3,49.6,29.66,NNE,32,8.8,11.1,61,0.00,,,0.83,VWS V14.01,2013-06-13 11:52:00,
2013-06-13 07:53:00,63.3,50.3,29.67,NE,38,8.0,11.1,62,0.00,,,0.83,VWS V14.01,2013-06-13 11:53:00,
2013-06-13 07:54:00,63.4,49.3,29.67,NE,52,8.1,8.1,60,0.00,,,0.83,VWS V14.01,2013-06-13 11:54:00,
2013-06-13 07:55:00,62.9,50.1,29.67,NE,36,7.3,8.1,63,0.00,,,0.83,VWS V14.01,2013-06-13 11:55:00,
2013-06-13 07:56:00,63.3,50.0,29.67,NE,46,9.0,9.0,62,0.00,,,0.83,VWS V14.01,2013-06-13 11:56:00,
2013-06-13 07:57:00,63.0,49.0,29.67,NNE,28,11.1,11.1,60,0.00,,,0.00,VWS V14.01,2013-06-13 11:57:00,
2013-06-13 07:58:00,63.0,49.6,29.67,NE,39,4.7,11.1,62,0.00,,,0.83,VWS V14.01,2013-06-13 11:58:00,
2013-06-13 07:59:00,63.0,49.6,29.67,NE,40,12.9,12.9,61,0.00,,,0.83,VWS V14.01,2013-06-13 11:59:00,
2013-06-13 08:01:00,63.0,49.6,29.66,NE,40,12.9,12.9,61,0.00,,,0.83,VWS V14.01,2013-06-13 12:01:00,
2013-06-13 08:02:00,63.0,49.6,29.66,NE,40,12.9,12.9,61,0.00,,,0.83,VWS V14.01,2013-06-13 12:02:00,
2013-06-13 08:03:00,63.3,49.1,29.67,NE,49,12.1,12.1,60,0.00,,,0.83,VWS V14.01,2013-06-13 12:03:00,
2013-06-13 08:04:00,63.1,49.0,29.67,NNE,32,7.5,7.6,60,0.00,,,0.83,VWS V14.01,2013-06-13 12:04:00,
2013-06-13 08:05:00,62.9,49.6,29.68,ENE,57,5.9,6.9,62,0.00,,,0.83,VWS V14.01,2013-06-13 12:05:00,
2013-06-13 08:06:00,62.9,50.0,29.67,NE,43,5.1,5.9,63,0.00,,,0.83,VWS V14.01,2013-06-13 12:06:00,
2013-06-13 08:07:00,63.1,49.7,29.67,NNE,18,6.3,6.3,62,0.00,,,0.83,VWS V14.01,2013-06-13 12:07:00,
2013-06-13 08:08:00,63.1,49.7,29.68,NNE,21,4.5,6.3,62,0.00,,,0.83,VWS V14.01,2013-06-13 12:08:00,
2013-06-13 08:09:00,62.9,49.9,29.68,NE,55,6.6,6.6,62,0.00,,,0.83,VWS V14.01,2013-06-13 12:09:00,
2013-06-13 08:10:00,63.0,49.9,29.68,NE,37,6.6,8.0,62,0.00,,,0.83,VWS V14.01,2013-06-13 12:10:00,
2013-06-13 08:11:00,62.8,50.1,29.68,NE,37,4.7,6.3,63,0.00,,,0.83,VWS V14.01,2013-06-13 12:11:00,
2013-06-13 08:12:00,63.0,50.2,29.68,NNE,31,3.7,6.3,63,0.00,,,0.83,VWS V14.01,2013-06-13 12:12:00,
2013-06-13 08:13:00,62.9,50.1,29.68,ENE,67,8.0,8.0,63,0.00,,,0.83,VWS V14.01,2013-06-13 12:13:00,
2013-06-13 08:14:00,62.8,50.4,29.68,NE,47,5.1,8.0,64,0.00,,,0.83,VWS V14.01,2013-06-13 12:14:00,
2013-06-13 08:15:00,62.9,50.4,29.68,North,1,7.5,8.0,64,0.00,,,0.83,VWS V14.01,2013-06-13 12:15:00,
2013-06-13 08:16:00,62.8,50.9,29.69,NNE,27,3.9,7.5,65,0.00,,,0.83,VWS V14.01,2013-06-13 12:16:00,
2013-06-13 08:17:00,62.8,50.4,29.68,NE,53,5.2,5.2,64,0.00,,,0.83,VWS V14.01,2013-06-13 12:17:00,
2013-06-13 08:18:00,62.8,50.8,29.69,NE,40,3.9,6.9,65,0.00,,,0.83,VWS V14.01,2013-06-13 12:18:00,
2013-06-13 08:19:00,62.7,50.9,29.69,NNE,20,4.9,6.9,65,0.00,,,0.83,VWS V14.01,2013-06-13 12:19:00,
2013-06-13 08:20:00,62.6,51.1,29.71,NNE,30,5.4,6.9,66,0.00,,,0.83,VWS V14.01,2013-06-13 12:20:00,
2013-06-13 08:21:00,62.7,51.3,29.69,NE,46,6.1,6.1,66,0.00,,,0.83,VWS V14.01,2013-06-13 12:21:00,
2013-06-13 08:22:00,62.6,51.7,29.68,NE,55,3.5,6.1,68,0.00,,,0.83,VWS V14.01,2013-06-13 12:22:00,
2013-06-13 08:23:00,62.7,51.4,29.68,NE,37,4.9,4.9,67,0.00,,,0.83,VWS V14.01,2013-06-13 12:23:00,
2013-06-13 08:24:00,62.6,52.0,29.69,NE,36,3.2,4.9,68,0.00,,,0.83,VWS V14.01,2013-06-13 12:24:00,
2013-06-13 08:25:00,62.7,51.8,29.69,NE,37,5.1,5.1,67,0.00,,,0.83,VWS V14.01,2013-06-13 12:25:00,
2013-06-13 08:26:00,62.5,52.0,29.69,NNE,23,5.4,5.4,69,0.00,,,0.83,VWS V14.01,2013-06-13 12:26:00,
2013-06-13 08:27:00,62.6,52.0,29.69,NNE,19,2.7,3.9,68,0.00,,,0.83,VWS V14.01,2013-06-13 12:27:00,
2013-06-13 08:28:00,62.5,51.4,29.69,NE,37,1.3,3.9,67,0.00,,,0.83,VWS V14.01,2013-06-13 12:28:00,
2013-06-13 08:29:00,62.7,52.1,29.69,East,93,4.4,4.4,68,0.00,,,0.83,VWS V14.01,2013-06-13 12:29:00,
2013-06-13 08:30:00,62.7,52.4,29.69,NNE,24,4.2,4.4,69,0.00,,,0.83,VWS V14.01,2013-06-13 12:30:00,
2013-06-13 08:31:00,62.9,52.3,29.69,WNW,291,7.3,7.3,68,0.00,,,0.83,VWS V14.01,2013-06-13 12:31:00,
2013-06-13 08:32:00,62.6,53.0,29.69,NNE,27,0.0,6.3,71,0.00,,,0.83,VWS V14.01,2013-06-13 12:32:00,
2013-06-13 08:33:00,62.6,53.0,29.69,NE,36,1.1,1.1,71,0.00,,,0.83,VWS V14.01,2013-06-13 12:33:00,
2013-06-13 08:34:00,62.7,51.2,29.69,NNW,348,3.2,3.2,66,0.00,,,0.83,VWS V14.01,2013-06-13 12:34:00,
2013-06-13 08:35:00,62.7,51.2,29.69,NNW,348,3.2,3.2,66,0.00,,,0.83,VWS V14.01,2013-06-13 12:35:00,
2013-06-13 08:36:00,62.6,52.7,29.69,WNW,296,1.0,1.3,70,0.00,,,0.83,VWS V14.01,2013-06-13 12:36:00,
2013-06-13 08:37:00,62.7,53.1,29.70,North,0,0.0,1.0,71,0.00,,,0.83,VWS V14.01,2013-06-13 12:37:00,
2013-06-13 09:18:00,63.9,45.2,29.74,ENE,67,2.8,2.8,51,0.00,,,0.83,VWS V14.01,2013-06-13 13:18:00,
2013-06-13 09:19:00,63.7,51.1,29.74,NE,46,3.0,3.0,64,0.00,,,0.83,VWS V14.01,2013-06-13 13:19:00,
2013-06-13 09:20:00,63.6,50.2,29.72,NE,46,4.9,4.9,61,0.00,,,0.83,VWS V14.01,2013-06-13 13:20:00,
2013-06-13 09:21:00,63.7,49.8,29.72,NE,55,5.7,5.7,61,0.00,,,0.83,VWS V14.01,2013-06-13 13:21:00,
2013-06-13 09:22:00,63.7,49.1,29.71,NE,55,9.0,9.0,59,0.00,,,0.83,VWS V14.01,2013-06-13 13:22:00,
2013-06-13 09:23:00,63.9,49.8,29.72,NE,37,4.7,9.0,60,0.00,,,0.83,VWS V14.01,2013-06-13 13:23:00,
2013-06-13 09:24:00,63.9,50.2,29.72,NE,40,3.9,4.7,61,0.00,,,0.83,VWS V14.01,2013-06-13 13:24:00,
2013-06-13 09:25:00,64.0,50.4,29.71,NNE,19,3.2,3.9,61,0.00,,,0.83,VWS V14.01,2013-06-13 13:25:00,
2013-06-13 09:26:00,64.1,51.2,29.72,NNE,21,3.5,3.5,63,0.00,,,0.83,VWS V14.01,2013-06-13 13:26:00,
2013-06-13 09:27:00,64.0,49.7,29.72,North,8,3.7,7.8,60,0.00,,,0.83,VWS V14.01,2013-06-13 13:27:00,
2013-06-13 09:28:00,64.1,49.7,29.71,NNW,345,2.2,4.2,60,0.00,,,0.83,VWS V14.01,2013-06-13 13:28:00,
2013-06-13 09:29:00,64.1,50.3,29.72,NNW,339,4.4,4.4,61,0.00,,,0.83,VWS V14.01,2013-06-13 13:29:00,
2013-06-13 09:30:00,64.1,50.0,29.72,North,4,4.0,6.6,60,0.00,,,0.83,VWS V14.01,2013-06-13 13:30:00,
2013-06-13 09:31:00,64.1,50.0,29.72,North,4,4.0,6.6,60,0.00,,,0.83,VWS V14.01,2013-06-13 13:31:00,
2013-06-13 09:32:00,63.9,49.9,29.72,North,0,2.0,3.0,60,0.00,,,0.83,VWS V14.01,2013-06-13 13:32:00,
2013-06-13 09:33:00,63.9,49.4,29.72,NNE,13,3.4,3.4,59,0.00,,,0.83,VWS V14.01,2013-06-13 13:33:00,
2013-06-13 09:34:00,63.9,49.1,29.72,NNE,14,6.3,6.3,59,0.00,,,0.83,VWS V14.01,2013-06-13 13:34:00,
2013-06-13 09:35:00,63.8,49.8,29.72,NE,38,3.7,6.3,60,0.00,,,0.83,VWS V14.01,2013-06-13 13:35:00,
2013-06-13 09:36:00,63.8,49.7,29.72,NW,318,4.7,4.7,60,0.00,,,0.83,VWS V14.01,2013-06-13 13:36:00,
2013-06-13 09:37:00,63.8,50.5,29.72,NNE,20,4.0,4.7,62,0.00,,,0.83,VWS V14.01,2013-06-13 13:37:00,
2013-06-13 09:38:00,63.8,50.0,29.73,North,6,4.5,4.5,61,0.00,,,0.83,VWS V14.01,2013-06-13 13:38:00,
2013-06-13 09:39:00,63.8,50.9,29.73,NW,308,0.0,4.5,63,0.00,,,0.83,VWS V14.01,2013-06-13 13:39:00,
2013-06-13 09:40:00,63.7,49.8,29.73,North,8,5.4,5.4,60,0.00,,,0.83,VWS V14.01,2013-06-13 13:40:00,
2013-06-13 09:41:00,63.8,50.0,29.71,NNE,17,4.9,5.4,61,0.00,,,0.83,VWS V14.01,2013-06-13 13:41:00,
2013-06-13 09:42:00,64.2,51.0,29.71,East,83,0.0,1.1,62,0.00,,,0.83,VWS V14.01,2013-06-13 13:42:00,
2013-06-13 09:43:00,64.0,50.4,29.71,North,8,2.8,3.0,61,0.00,,,0.83,VWS V14.01,2013-06-13 13:43:00,
2013-06-13 09:44:00,64.1,50.6,29.72,WNW,303,2.7,2.8,62,0.00,,,0.83,VWS V14.01,2013-06-13 13:44:00,
2013-06-13 09:45:00,63.8,50.4,29.72,NNE,33,4.7,4.7,62,0.00,,,0.83,VWS V14.01,2013-06-13 13:45:00,
2013-06-13 09:46:00,64.0,51.1,29.72,WNW,296,2.2,4.7,63,0.00,,,0.83,VWS V14.01,2013-06-13 13:46:00,
2013-06-13 09:47:00,63.9,50.8,29.72,North,7,4.4,4.4,62,0.00,,,0.83,VWS V14.01,2013-06-13 13:47:00,
2013-06-13 09:48:00,63.9,50.1,29.72,NW,315,6.6,6.6,61,0.00,,,0.83,VWS V14.01,2013-06-13 13:48:00,
2013-06-13 09:49:00,64.2,51.2,29.73,WNW,290,3.5,6.6,63,0.00,,,0.83,VWS V14.01,2013-06-13 13:49:00,
2013-06-13 09:50:00,64.0,51.3,29.73,WNW,302,3.7,3.7,63,0.00,,,0.83,VWS V14.01,2013-06-13 13:50:00,
2013-06-13 09:51:00,63.9,51.3,29.73,NW,307,0.0,2.0,64,0.00,,,0.83,VWS V14.01,2013-06-13 13:51:00,
2013-06-13 09:52:00,64.1,51.6,29.73,NW,322,4.4,4.7,64,0.00,,,0.83,VWS V14.01,2013-06-13 13:52:00,
2013-06-13 09:53:00,64.0,51.6,29.73,NW,305,3.7,4.7,64,0.00,,,0.83,VWS V14.01,2013-06-13 13:53:00,
2013-06-13 09:54:00,64.1,51.8,29.73,NW,310,4.9,4.9,64,0.00,,,0.83,VWS V14.01,2013-06-13 13:54:00,
2013-06-13 09:55:00,64.3,52.4,29.72,North,349,7.1,7.1,65,0.00,,,0.83,VWS V14.01,2013-06-13 13:55:00,
2013-06-13 09:56:00,64.4,51.7,29.72,NW,304,4.7,4.9,63,0.00,,,0.83,VWS V14.01,2013-06-13 13:56:00,
2013-06-13 09:57:00,64.7,52.4,29.72,NNE,15,3.2,4.9,64,0.00,,,0.83,VWS V14.01,2013-06-13 13:57:00,
2013-06-13 09:58:00,64.6,52.4,29.72,NE,46,3.4,4.4,65,0.00,,,0.83,VWS V14.01,2013-06-13 13:58:00,
2013-06-13 09:59:00,64.6,51.7,29.72,North,351,5.1,5.1,63,0.00,,,0.83,VWS V14.01,2013-06-13 13:59:00,
2013-06-13 10:01:00,64.3,51.1,29.72,NW,312,5.6,5.6,62,0.00,,,0.83,VWS V14.01,2013-06-13 14:01:00,
2013-06-13 10:02:00,64.9,52.0,29.73,NNE,32,2.3,5.6,63,0.00,,,0.83,VWS V14.01,2013-06-13 14:02:00,
2013-06-13 10:03:00,64.9,52.0,29.73,NNE,32,2.3,5.6,63,0.00,,,0.83,VWS V14.01,2013-06-13 14:03:00,
2013-06-13 10:04:00,65.1,51.9,29.73,NE,40,1.6,5.1,62,0.00,,,0.83,VWS V14.01,2013-06-13 14:04:00,
2013-06-13 10:05:00,65.8,52.9,29.72,WSW,237,4.4,5.1,63,0.00,,,0.83,VWS V14.01,2013-06-13 14:05:00,
2013-06-13 10:07:00,65.6,52.4,29.72,NW,317,2.8,5.9,62,0.00,,,0.83,VWS V14.01,2013-06-13 14:07:00,
2013-06-13 10:08:00,66.0,52.5,29.72,NE,37,1.8,1.8,62,0.00,,,0.83,VWS V14.01,2013-06-13 14:08:00,
2013-06-13 10:09:00,65.8,51.9,29.73,NW,322,4.0,5.1,61,0.00,,,0.83,VWS V14.01,2013-06-13 14:09:00,
2013-06-13 10:12:00,65.9,51.1,29.73,North,3,3.5,3.5,59,0.00,,,0.83,VWS V14.01,2013-06-13 14:12:00,
2013-06-13 10:13:00,65.9,49.8,29.72,NE,39,2.8,4.4,56,0.00,,,0.83,VWS V14.01,2013-06-13 14:13:00,
2013-06-13 10:15:00,66.8,51.8,29.73,NNW,339,3.7,3.7,59,0.00,,,0.83,VWS V14.01,2013-06-13 14:15:00,
2013-06-13 10:16:00,66.7,50.3,29.75,NE,37,1.3,3.4,56,0.00,,,0.83,VWS V14.01,2013-06-13 14:16:00,
2013-06-13 10:17:00,67.9,52.3,29.73,WNW,298,0.0,3.4,57,0.00,,,0.83,VWS V14.01,2013-06-13 14:17:00,
2013-06-13 10:19:00,66.7,50.5,29.73,NE,43,4.7,6.8,56,0.00,,,0.83,VWS V14.01,2013-06-13 14:19:00,
2013-06-13 10:20:00,66.4,50.3,29.73,NNE,22,3.7,6.8,56,0.00,,,0.83,VWS V14.01,2013-06-13 14:20:00,
2013-06-13 10:21:00,67.5,51.0,29.72,NNW,347,3.2,6.8,55,0.00,,,0.83,VWS V14.01,2013-06-13 14:21:00,
2013-06-13 10:22:00,68.0,51.3,29.72,NNW,341,3.0,6.8,55,0.00,,,0.83,VWS V14.01,2013-06-13 14:22:00,
2013-06-13 10:29:00,68.1,48.0,29.72,North,349,7.3,7.8,48,0.00,,,0.83,VWS V14.01,2013-06-13 14:29:00,
2013-06-13 10:30:00,67.8,47.1,29.71,NNE,12,5.7,7.8,47,0.00,,,0.83,VWS V14.01,2013-06-13 14:30:00,
2013-06-13 10:31:00,67.0,45.6,29.72,ENE,67,7.8,7.8,46,0.00,,,0.83,VWS V14.01,2013-06-13 14:31:00,
2013-06-13 10:47:00,65.4,51.0,29.73,WNW,290,0.0,2.3,60,0.00,,,0.83,VWS V14.01,2013-06-13 14:47:00,
2013-06-13 10:48:00,64.5,51.3,29.73,NW,309,5.1,5.1,62,0.00,,,0.83,VWS V14.01,2013-06-13 14:48:00,
2013-06-13 10:49:00,65.8,52.9,29.72,WSW,237,4.4,5.1,63,0.00,,,0.83,VWS V14.01,2013-06-13 14:49:00,
2013-06-13 10:50:00,64.8,51.3,29.72,NNW,329,5.9,5.9,62,0.00,,,0.83,VWS V14.01,2013-06-13 14:50:00,
2013-06-13 10:51:00,65.6,52.4,29.72,NW,317,2.8,5.9,62,0.00,,,0.83,VWS V14.01,2013-06-13 14:51:00,
2013-06-13 10:52:00,66.5,54.0,29.72,North,7,1.5,2.8,64,0.00,,,0.83,VWS V14.01,2013-06-13 14:52:00,
2013-06-13 10:53:00,66.9,54.0,29.73,SW,226,1.0,1.8,63,0.00,,,0.83,VWS V14.01,2013-06-13 14:53:00,
2013-06-13 10:54:00,65.8,51.9,29.73,NW,322,4.0,5.1,61,0.00,,,0.83,VWS V14.01,2013-06-13 14:54:00,
2013-06-13 10:55:00,65.6,51.1,29.73,NNW,340,2.0,4.5,59,0.00,,,0.83,VWS V14.01,2013-06-13 14:55:00,
2013-06-13 10:56:00,65.9,51.1,29.73,North,3,3.5,3.5,59,0.00,,,0.83,VWS V14.01,2013-06-13 14:56:00,
2013-06-13 10:57:00,66.4,52.0,29.72,NNW,329,4.4,4.4,60,0.00,,,0.83,VWS V14.01,2013-06-13 14:57:00,
2013-06-13 10:58:00,65.9,49.8,29.73,NE,39,2.8,4.4,56,0.00,,,0.83,VWS V14.01,2013-06-13 14:58:00,
2013-06-13 10:59:00,66.8,51.8,29.73,NNW,339,3.7,3.7,59,0.00,,,0.83,VWS V14.01,2013-06-13 14:59:00,
2013-06-13 11:00:00,66.5,50.7,29.73,NNW,344,3.4,3.7,57,0.00,,,0.83,VWS V14.01,2013-06-13 15:00:00,
2013-06-13 20:59:00,69.3,46.0,29.88,NW,322,6.8,6.8,43,0.00,,,0.83,VWS V14.01,2013-06-14 00:59:00,
2013-06-13 21:00:00,69.3,46.0,29.88,NW,322,6.8,6.8,43,0.00,,,0.83,VWS V14.01,2013-06-14 01:00:00,
2013-06-13 21:01:00,69.3,46.0,29.88,NW,322,6.8,6.8,43,0.00,,,0.83,VWS V14.01,2013-06-14 01:01:00,
2013-06-13 21:04:00,68.8,48.9,29.85,NW,307,5.9,7.1,49,0.00,,,0.83,VWS V14.01,2013-06-14 01:04:00,
2013-06-13 21:06:00,68.9,49.3,29.85,NNW,327,7.3,8.0,49,0.00,,,0.83,VWS V14.01,2013-06-14 01:06:00,
2013-06-13 21:07:00,68.7,49.3,29.85,NW,318,4.5,7.3,50,0.00,,,0.83,VWS V14.01,2013-06-14 01:07:00,
2013-06-13 21:09:00,68.6,49.9,29.86,NNW,334,4.9,5.6,51,0.00,,,0.83,VWS V14.01,2013-06-14 01:09:00,
2013-06-13 21:11:00,68.9,49.6,29.86,NW,325,6.6,6.6,50,0.00,,,0.83,VWS V14.01,2013-06-14 01:11:00,
2013-06-13 21:12:00,68.7,49.8,29.85,NW,324,4.2,6.6,51,0.00,,,0.83,VWS V14.01,2013-06-14 01:12:00,
2013-06-13 21:15:00,68.4,50.1,29.86,NW,313,5.4,5.6,52,0.00,,,0.83,VWS V14.01,2013-06-14 01:15:00,
2013-06-13 21:16:00,68.8,49.9,29.86,NNW,328,5.2,8.3,51,0.00,,,0.83,VWS V14.01,2013-06-14 01:16:00,
2013-06-13 21:18:00,68.8,50.3,29.86,NW,305,9.3,9.3,52,0.00,,,0.83,VWS V14.01,2013-06-14 01:18:00,
2013-06-13 21:23:00,68.7,50.0,29.87,NW,311,10.5,10.5,51,0.00,,,0.83,VWS V14.01,2013-06-14 01:23:00,
2013-06-13 21:24:00,68.4,50.1,29.87,NW,320,5.1,10.5,52,0.00,,,0.83,VWS V14.01,2013-06-14 01:24:00,
2013-06-13 21:28:00,68.3,50.3,29.85,NW,316,8.7,8.7,53,0.00,,,0.83,VWS V14.01,2013-06-14 01:28:00,
2013-06-13 21:29:00,68.0,49.8,29.85,NW,324,9.5,9.5,52,0.00,,,0.83,VWS V14.01,2013-06-14 01:29:00,
2013-06-13 21:30:00,68.5,50.3,29.86,NNW,334,8.7,9.5,52,0.00,,,0.83,VWS V14.01,2013-06-14 01:30:00,
2013-06-13 21:34:00,68.1,50.2,29.87,NNW,331,8.5,8.7,53,0.00,,,0.83,VWS V14.01,2013-06-14 01:34:00,
2013-06-13 21:35:00,67.9,50.2,29.86,NNW,327,4.7,8.5,53,0.00,,,0.83,VWS V14.01,2013-06-14 01:35:00,
2013-06-13 21:36:00,67.7,50.5,29.87,NW,312,5.2,8.5,54,0.00,,,0.83,VWS V14.01,2013-06-14 01:36:00,
2013-06-13 21:38:00,67.8,50.6,29.86,NW,320,6.4,6.4,54,0.00,,,0.83,VWS V14.01,2013-06-14 01:38:00,
2013-06-13 21:39:00,67.7,50.3,29.86,NE,41,4.9,6.4,54,0.00,,,0.83,VWS V14.01,2013-06-14 01:39:00,
2013-06-13 21:40:00,67.8,50.5,29.86,NNW,327,5.9,5.9,54,0.00,,,0.83,VWS V14.01,2013-06-14 01:40:00,
2013-06-13 21:41:00,67.8,50.5,29.86,NNW,327,5.9,5.9,54,0.00,,,0.83,VWS V14.01,2013-06-14 01:41:00,
2013-06-13 21:43:00,67.7,50.6,29.87,NNW,331,1.0,2.5,54,0.00,,,0.83,VWS V14.01,2013-06-14 01:43:00,
2013-06-13 21:45:00,67.7,50.7,29.88,NNE,21,3.0,4.2,54,0.00,,,0.83,VWS V14.01,2013-06-14 01:45:00,
2013-06-13 21:46:00,67.7,50.7,29.87,NNE,17,1.3,3.0,54,0.00,,,0.83,VWS V14.01,2013-06-14 01:46:00,
2013-06-13 21:49:00,67.4,51.3,29.88,NNW,339,1.3,2.0,56,0.00,,,0.83,VWS V14.01,2013-06-14 01:49:00,
2013-06-13 21:51:00,67.3,51.8,29.88,NNW,338,7.8,7.8,57,0.00,,,0.83,VWS V14.01,2013-06-14 01:51:00,
2013-06-13 21:54:00,67.8,52.3,29.87,WNW,291,5.2,5.2,58,0.00,,,0.83,VWS V14.01,2013-06-14 01:54:00,
2013-06-13 21:55:00,67.5,52.5,29.88,NW,307,0.0,0.0,58,0.00,,,0.83,VWS V14.01,2013-06-14 01:55:00,
2013-06-13 21:56:00,67.7,52.3,29.87,North,351,1.0,1.0,58,0.00,,,0.83,VWS V14.01,2013-06-14 01:56:00,
2013-06-13 21:57:00,67.9,52.1,29.87,NW,315,3.0,3.0,57,0.00,,,0.83,VWS V14.01,2013-06-14 01:57:00,
2013-06-13 21:59:00,67.9,51.8,29.88,NW,306,1.3,5.1,56,0.00,,,0.83,VWS V14.01,2013-06-14 01:59:00,
2013-06-13 22:00:00,67.3,52.5,29.89,North,3,1.5,2.0,59,0.00,,,0.83,VWS V14.01,2013-06-14 02:00:00,
2013-06-13 22:02:00,67.6,52.7,29.87,NW,309,2.2,2.2,59,0.00,,,0.83,VWS V14.01,2013-06-14 02:02:00,
2013-06-13 22:04:00,67.8,51.5,29.87,NW,318,2.3,5.4,56,0.00,,,0.83,VWS V14.01,2013-06-14 02:04:00,
2013-06-13 22:07:00,67.6,51.9,29.88,North,0,2.0,5.4,57,0.00,,,0.83,VWS V14.01,2013-06-14 02:07:00,
2013-06-13 22:08:00,67.7,51.5,29.88,NE,47,1.1,5.4,56,0.00,,,0.83,VWS V14.01,2013-06-14 02:08:00,
2013-06-13 22:10:00,67.5,52.0,29.87,NW,313,2.5,5.4,57,0.00,,,0.83,VWS V14.01,2013-06-14 02:10:00,
2013-06-13 22:12:00,67.3,52.0,29.88,WNW,294,3.0,5.4,58,0.00,,,0.83,VWS V14.01,2013-06-14 02:12:00,
2013-06-13 22:13:00,67.6,51.9,29.88,NW,311,4.5,5.4,57,0.00,,,0.83,VWS V14.01,2013-06-14 02:13:00,
2013-06-13 22:15:00,67.2,52.5,29.88,NW,304,2.7,5.4,59,0.00,,,0.83,VWS V14.01,2013-06-14 02:15:00,
2013-06-13 22:16:00,67.2,52.3,29.88,NW,323,3.9,5.4,59,0.00,,,0.83,VWS V14.01,2013-06-14 02:16:00,
2013-06-13 22:18:00,67.2,52.8,29.88,NW,310,3.0,5.4,60,0.00,,,0.83,VWS V14.01,2013-06-14 02:18:00,
2013-06-13 22:22:00,66.7,53.3,29.88,WNW,295,3.7,5.4,62,0.00,,,0.83,VWS V14.01,2013-06-14 02:22:00,
2013-06-13 22:23:00,66.7,53.5,29.88,NW,311,3.7,5.4,62,0.00,,,0.83,VWS V14.01,2013-06-14 02:23:00,
2013-06-13 22:25:00,66.8,53.7,29.89,NW,321,1.5,5.4,63,0.00,,,0.83,VWS V14.01,2013-06-14 02:25:00,
2013-06-13 22:28:00,66.7,53.3,29.88,NW,309,3.0,5.4,62,0.00,,,0.83,VWS V14.01,2013-06-14 02:28:00,
2013-06-13 22:29:00,66.8,53.2,29.88,NW,308,3.4,5.4,61,0.00,,,0.83,VWS V14.01,2013-06-14 02:29:00,
2013-06-13 22:30:00,67.0,53.1,29.89,NNW,327,4.0,5.4,61,0.00,,,0.83,VWS V14.01,2013-06-14 02:30:00,
2013-06-13 22:31:00,67.1,52.9,29.89,NW,326,3.2,5.4,60,0.00,,,0.83,VWS V14.01,2013-06-14 02:31:00,
2013-06-13 22:34:00,66.7,53.1,29.89,WNW,302,3.5,5.4,62,0.00,,,0.83,VWS V14.01,2013-06-14 02:34:00,
2013-06-13 22:36:00,66.6,53.8,29.89,WNW,290,3.4,5.4,64,0.00,,,0.83,VWS V14.01,2013-06-14 02:36:00,
2013-06-13 22:37:00,66.4,53.6,29.89,West,281,4.7,5.4,63,0.00,,,0.83,VWS V14.01,2013-06-14 02:37:00,
2013-06-13 22:38:00,66.4,53.6,29.89,West,281,4.7,5.4,63,0.00,,,0.83,VWS V14.01,2013-06-14 02:38:00,
2013-06-13 22:39:00,66.0,54.4,29.89,WNW,298,4.7,5.4,66,0.00,,,0.83,VWS V14.01,2013-06-14 02:39:00,
2013-06-13 22:41:00,65.8,54.9,29.89,NW,307,4.4,5.4,68,0.00,,,0.83,VWS V14.01,2013-06-14 02:41:00,
2013-06-13 22:42:00,65.9,55.3,29.90,NW,308,5.2,5.4,68,0.00,,,0.83,VWS V14.01,2013-06-14 02:42:00,
2013-06-13 22:43:00,65.9,55.3,29.90,NW,312,4.9,5.4,69,0.00,,,0.83,VWS V14.01,2013-06-14 02:43:00,
2013-06-13 22:45:00,66.3,55.0,29.90,NW,305,4.9,5.4,67,0.00,,,0.83,VWS V14.01,2013-06-14 02:45:00,
2013-06-13 22:46:00,65.9,55.3,29.90,NW,321,4.0,5.4,69,0.00,,,0.83,VWS V14.01,2013-06-14 02:46:00,
2013-06-13 22:48:00,66.3,54.1,29.90,NW,313,5.7,5.7,65,0.00,,,0.83,VWS V14.01,2013-06-14 02:48:00,
2013-06-13 22:49:00,66.1,54.2,29.89,NW,314,4.9,5.7,65,0.00,,,0.83,VWS V14.01,2013-06-14 02:49:00,
2013-06-13 22:51:00,65.8,54.6,29.90,WNW,300,4.9,5.7,67,0.00,,,0.83,VWS V14.01,2013-06-14 02:51:00,
2013-06-13 22:54:00,65.5,55.1,29.93,NW,304,4.7,5.7,69,0.00,,,0.83,VWS V14.01,2013-06-14 02:54:00,
2013-06-13 22:55:00,65.6,55.3,29.90,NW,311,4.7,5.7,70,0.00,,,0.83,VWS V14.01,2013-06-14 02:55:00,
2013-06-13 22:57:00,65.8,55.1,29.90,NW,313,4.9,5.7,68,0.00,,,0.83,VWS V14.01,2013-06-14 02:57:00,
2013-06-13 22:59:00,65.4,55.0,29.90,NW,313,5.6,6.4,69,0.00,,,0.83,VWS V14.01,2013-06-14 02:59:00,
2013-06-13 23:00:00,65.6,55.1,29.90,WNW,298,6.6,6.6,69,0.00,,,0.83,VWS V14.01,2013-06-14 03:00:00,
2013-06-13 23:02:00,65.4,55.0,29.90,NNW,332,6.1,6.4,69,0.00,,,0.83,VWS V14.01,2013-06-14 03:02:00,
2013-06-13 23:05:00,65.7,54.2,29.90,NNW,341,4.4,7.6,66,0.00,,,0.83,VWS V14.01,2013-06-14 03:05:00,
2013-06-13 23:06:00,65.5,54.0,29.90,North,349,7.1,7.1,66,0.00,,,0.83,VWS V14.01,2013-06-14 03:06:00,
2013-06-13 23:08:00,65.7,53.8,29.93,NW,322,5.9,5.9,65,0.00,,,0.83,VWS V14.01,2013-06-14 03:08:00,
2013-06-13 23:11:00,65.6,53.4,29.90,NNW,343,3.0,6.6,65,0.00,,,0.83,VWS V14.01,2013-06-14 03:11:00,
2013-06-13 23:12:00,65.7,53.4,29.90,NW,318,6.8,6.8,65,0.00,,,0.83,VWS V14.01,2013-06-14 03:12:00,
2013-06-13 23:13:00,65.7,53.4,29.90,NW,318,6.8,6.8,65,0.00,,,0.83,VWS V14.01,2013-06-14 03:13:00,
2013-06-13 23:14:00,65.6,53.3,29.90,NW,306,8.0,8.0,64,0.00,,,0.83,VWS V14.01,2013-06-14 03:14:00,
2013-06-13 23:16:00,65.2,53.2,29.90,NW,308,6.1,6.8,65,0.00,,,0.83,VWS V14.01,2013-06-14 03:16:00,
2013-06-13 23:19:00,65.4,53.4,29.91,NW,318,5.9,5.9,65,0.00,,,0.83,VWS V14.01,2013-06-14 03:19:00,
2013-06-13 23:20:00,65.2,53.4,29.91,NNW,330,6.8,6.8,66,0.00,,,0.83,VWS V14.01,2013-06-14 03:20:00,
2013-06-13 23:23:00,65.2,53.7,29.90,NNW,327,6.1,6.8,66,0.00,,,0.83,VWS V14.01,2013-06-14 03:23:00,
2013-06-13 23:24:00,65.2,53.3,29.91,NNW,348,3.7,6.1,65,0.00,,,0.83,VWS V14.01,2013-06-14 03:24:00,
2013-06-13 23:25:00,65.2,53.2,29.91,North,350,1.5,3.7,65,0.00,,,0.83,VWS V14.01,2013-06-14 03:25:00,
2013-06-13 23:26:00,65.0,53.7,29.91,NW,315,3.4,3.7,67,0.00,,,0.83,VWS V14.01,2013-06-14 03:26:00,
2013-06-13 23:29:00,64.8,53.4,29.91,WNW,284,4.4,4.5,67,0.00,,,0.83,VWS V14.01,2013-06-14 03:29:00,
2013-06-13 23:30:00,64.8,53.2,29.90,NNW,328,5.7,6.3,66,0.00,,,0.83,VWS V14.01,2013-06-14 03:30:00,
2013-06-13 23:31:00,64.8,53.6,29.91,NNW,336,6.3,6.3,67,0.00,,,0.83,VWS V14.01,2013-06-14 03:31:00,
2013-06-13 23:33:00,65.0,53.6,29.91,WNW,296,4.9,6.4,67,0.00,,,0.83,VWS V14.01,2013-06-14 03:33:00,
2013-06-13 23:34:00,64.5,53.2,29.91,NW,304,7.6,7.6,67,0.00,,,0.83,VWS V14.01,2013-06-14 03:34:00,
2013-06-13 23:35:00,64.5,53.5,29.91,NW,308,5.7,7.6,67,0.00,,,0.83,VWS V14.01,2013-06-14 03:35:00,
2013-06-13 23:37:00,64.6,53.7,29.92,NW,314,7.8,8.3,68,0.00,,,0.83,VWS V14.01,2013-06-14 03:37:00,
2013-06-13 23:39:00,63.9,53.3,29.91,NW,307,4.7,4.7,68,0.00,,,0.83,VWS V14.01,2013-06-14 03:39:00,
2013-06-13 23:41:00,64.6,53.5,29.91,West,272,1.8,2.2,67,0.00,,,0.83,VWS V14.01,2013-06-14 03:41:00,
2013-06-13 23:42:00,64.6,53.5,29.91,NNW,348,1.8,1.8,67,0.00,,,0.83,VWS V14.01,2013-06-14 03:42:00,
2013-06-13 23:43:00,65.0,53.8,29.91,NW,322,3.4,3.4,67,0.00,,,0.83,VWS V14.01,2013-06-14 03:43:00,
2013-06-13 23:44:00,64.9,53.6,29.91,NNW,329,4.9,4.9,67,0.00,,,0.83,VWS V14.01,2013-06-14 03:44:00,
2013-06-13 23:45:00,65.1,51.8,29.91,NW,322,5.2,5.2,62,0.00,,,0.83,VWS V14.01,2013-06-14 03:45:00,
2013-06-13 23:47:00,64.5,53.2,29.91,North,349,2.7,3.0,67,0.00,,,0.83,VWS V14.01,2013-06-14 03:47:00,
2013-06-13 23:48:00,64.4,53.8,29.91,NNW,338,2.3,2.3,68,0.00,,,0.83,VWS V14.01,2013-06-14 03:48:00,
2013-06-13 23:50:00,64.5,53.8,29.91,North,351,2.2,2.3,68,0.00,,,0.83,VWS V14.01,2013-06-14 03:50:00,
2013-06-13 23:51:00,64.5,54.1,29.91,ENE,61,2.2,2.2,69,0.00,,,0.83,VWS V14.01,2013-06-14 03:51:00,
2013-06-13 23:52:00,64.7,54.1,29.91,NW,313,3.5,3.5,69,0.00,,,0.83,VWS V14.01,2013-06-14 03:52:00,
2013-06-13 23:53:00,64.6,54.0,29.91,NW,322,3.4,3.5,69,0.00,,,0.83,VWS V14.01,2013-06-14 03:53:00,
2013-06-13 23:55:00,64.8,54.3,29.92,NNW,327,5.2,5.2,69,0.00,,,0.83,VWS V14.01,2013-06-14 03:55:00,
2013-06-13 23:56:00,64.6,54.2,29.91,WNW,303,4.2,4.5,69,0.00,,,0.83,VWS V14.01,2013-06-14 03:56:00,
2013-06-13 23:57:00,64.7,54.2,29.92,NW,306,5.6,5.6,69,0.00,,,0.83,VWS V14.01,2013-06-14 03:57:00,
2013-06-13 23:58:00,63.5,53.4,29.92,WNW,292,4.0,5.7,70,0.00,,,0.83,VWS V14.01,2013-06-14 03:58:00,